ECMWFFLT1_sfc_temp_096.txt.gz
Temp
78 78 79 80 80 80 80 80 80 80 80 79 79 79 79 79 78 77 77 76 76 75 75 75 76 76 76 76 76 76 76 76 75 75 74 74 75 75 75 75 76 75 76 76 76 76 77 78 78 78 78 78 78 78 77 78 78 78 78 78 78 78 77
77 79 79 80 80 80 81 81 80 81 80 80 80 79 80 79 78 78 77 77 76 76 76 76 76 76 76 76 77 76 76 76 76 76 75 74 75 75 76 75 76 75 75 76 76 76 77 78 78 78 78 78 78 78 78 78 78 78 78 77 77 77 78
77 79 80 80 80 81 80 81 80 81 81 81 81 80 79 78 79 78 77 77 76 76 77 76 76 76 77 76 76 76 76 76 75 76 75 76 75 76 75 75 75 76 76 76 76 77 78 77 77 78 78 78 79 78 78 78 78 78 78 77 78 78 77
77 78 80 81 81 81 82 82 81 82 82 82 81 81 80 79 80 79 79 78 77 76 76 76 77 77 77 76 76 76 76 76 76 77 77 77 76 76 75 75 75 76 75 76 78 78 79 78 77 77 79 78 78 79 78 78 78 78 78 77 77 78 77
75 79 80 80 80 80 81 81 81 81 82 83 83 81 81 81 81 80 80 80 79 78 78 78 79 78 77 77 78 77 77 77 76 77 77 77 76 75 75 76 75 76 76 77 77 77 77 77 77 77 78 78 78 78 78 78 78 78 77 77 77 77 78
70 76 78 79 80 81 82 83 83 83 82 82 82 82 82 82 82 81 81 80 79 80 79 78 78 78 77 78 78 78 77 77 77 76 77 77 75 75 75 76 76 76 76 76 77 77 77 77 78 78 78 78 79 79 79 79 79 79 78 77 77 78 78
69 74 78 79 81 81 82 83 84 83 84 84 83 83 82 82 81 82 81 80 80 78 79 79 79 78 78 78 77 77 76 77 76 77 77 77 76 76 75 76 76 76 77 77 76 77 77 77 77 77 78 78 78 78 78 78 78 78 78 77 77 77 77
65 72 78 79 81 82 83 83 84 84 84 84 83 81 81 82 82 81 81 81 81 81 80 79 79 78 78 78 78 77 77 77 78 77 77 77 77 77 76 76 76 76 76 76 77 77 77 77 78 78 77 78 78 78 78 78 78 79 78 77 77 77 78
66 65 70 80 80 82 83 83 84 84 82 82 82 82 82 82 82 81 81 81 81 80 80 81 80 80 78 78 77 77 78 78 77 77 77 77 77 78 78 77 77 76 76 77 78 77 77 78 78 77 77 77 78 77 78 78 78 78 78 78 77 77 78
64 65 65 67 77 81 80 81 82 81 81 81 81 80 81 82 82 82 82 81 82 81 81 81 81 81 79 78 78 78 78 77 77 78 78 77 78 78 79 79 78 77 77 77 78 77 77 78 78 77 76 77 77 77 78 78 78 78 78 78 78 78 77
65 65 64 66 65 68 76 79 79 78 80 79 80 82 81 82 81 82 81 82 82 82 82 81 81 81 80 79 79 79 78 78 78 78 77 78 79 79 80 80 80 78 78 78 77 78 77 77 77 76 76 77 77 77 77 78 78 78 78 79 79 79 79
66 64 64 64 64 66 65 66 70 75 77 77 81 82 80 80 82 83 82 82 83 82 82 82 82 81 80 80 79 78 78 78 78 78 78 78 79 79 80 80 80 79 79 79 78 77 78 77 77 77 76 77 78 78 78 78 78 78 78 79 79 79 79
65 65 64 64 65 65 65 65 66 67 70 78 81 82 82 82 82 83 80 81 83 83 82 81 81 80 80 80 80 78 78 78 78 78 79 78 79 80 80 80 81 80 80 80 79 79 78 78 77 77 77 77 77 78 78 78 78 78 78 78 79 78 78
65 64 64 65 64 64 64 65 66 67 68 68 76 81 82 83 83 82 81 81 82 83 83 83 81 79 79 79 78 78 79 79 80 79 78 79 78 78 80 80 80 79 79 79 79 80 80 79 78 78 78 78 77 78 78 78 78 78 78 78 78 79 78
62 62 62 63 63 63 64 64 64 65 66 68 69 70 76 82 82 81 82 82 82 83 83 82 80 79 80 79 78 77 78 78 79 79 79 79 78 78 78 79 79 79 79 78 79 81 81 81 81 79 78 78 77 78 78 78 78 78 78 78 78 79 79
60 61 61 62 62 63 64 64 65 65 66 66 67 68 70 70 76 82 82 82 83 82 83 81 80 79 79 79 78 79 78 78 78 78 78 78 78 77 78 79 79 80 79 79 79 79 79 79 79 80 79 78 77 78 78 78 78 77 72 74 79 78 79
58 59 61 61 61 63 63 64 64 64 65 65 66 68 68 70 69 71 81 83 83 81 82 83 80 80 79 79 80 79 78 78 78 78 77 77 78 77 77 78 79 78 77 77 78 78 77 78 79 80 80 80 79 78 78 79 79 72 68 68 70 78 79
57 58 59 60 62 62 62 62 63 63 64 65 66 67 67 68 69 70 71 78 83 83 84 83 82 80 79 80 79 78 78 78 78 77 77 77 77 77 77 78 77 77 77 77 78 77 79 79 78 78 80 80 80 80 79 79 75 68 67 67 67 71 79
57 58 58 59 60 61 62 62 63 63 64 66 66 67 68 68 69 68 70 70 73 81 83 83 83 81 79 80 79 78 78 78 78 77 77 77 77 77 77 77 77 77 78 78 79 79 77 77 78 78 79 80 78 79 80 80 73 67 66 66 66 66 73
58 58 59 60 60 61 61 61 62 63 64 65 66 68 69 70 69 70 71 72 73 76 81 81 82 81 80 79 79 79 79 78 78 77 77 78 77 77 77 77 77 78 80 80 78 77 77 79 78 78 77 78 78 78 80 80 74 67 65 65 65 65 68
57 58 59 59 59 61 61 61 61 62 63 64 66 67 68 68 69 70 70 71 72 74 78 81 81 80 80 79 79 79 79 78 78 78 78 78 78 77 77 77 77 78 79 80 79 78 77 78 78 78 78 79 80 79 80 82 72 65 64 63 63 63 66
57 59 58 59 59 60 60 60 60 61 62 64 65 66 67 67 68 68 69 71 72 73 75 78 79 80 80 79 80 80 79 79 78 78 78 78 77 77 77 77 76 76 78 79 81 80 80 79 80 79 79 79 80 80 79 83 70 65 63 62 62 63 70
58 59 60 60 61 61 62 62 62 63 64 64 64 65 65 66 67 67 69 70 72 72 73 74 77 79 79 80 79 79 79 79 78 78 78 78 77 77 77 77 77 77 78 78 79 80 80 80 80 79 80 80 79 79 79 81 73 64 62 61 61 63 72
60 60 61 61 62 62 62 63 63 64 64 63 64 65 65 65 65 66 67 69 70 71 73 73 73 75 77 79 80 80 79 78 78 78 77 77 77 77 78 79 79 79 79 78 79 80 81 81 80 80 81 81 80 81 80 81 75 63 60 60 60 65 73
60 60 60 62 61 60 61 63 63 64 64 64 63 64 65 64 65 65 66 67 67 68 68 69 70 72 74 75 76 78 80 79 78 78 78 77 77 78 78 78 78 79 77 77 79 80 80 80 80 81 81 83 82 80 80 82 78 64 60 59 58 64 75
58 59 60 61 62 62 62 63 63 62 62 62 63 66 65 64 63 64 65 66 66 65 65 66 67 69 72 74 74 75 76 78 78 78 78 77 78 78 78 79 76 75 75 77 77 79 80 81 80 80 81 82 82 83 82 82 82 76 60 59 57 59 74
59 60 60 61 62 63 61 62 61 61 62 63 64 65 65 64 63 63 65 65 65 64 64 65 67 68 70 71 74 75 75 76 77 77 78 79 78 79 79 79 77 76 75 75 75 76 77 79 80 81 80 82 83 83 83 83 82 80 62 58 57 57 65
59 60 62 62 63 62 61 62 62 62 62 64 65 65 64 63 62 63 64 64 63 64 65 66 67 67 69 70 71 73 75 77 77 78 79 78 78 77 77 80 80 79 78 77 76 75 76 77 78 79 80 82 82 82 82 81 76 84 66 59 56 56 57
56 57 57 59 60 62 62 60 60 61 61 63 64 64 63 62 62 62 63 63 63 64 65 65 66 67 67 68 69 71 73 75 76 77 79 80 79 78 78 79 80 80 78 77 76 76 76 76 77 78 79 79 80 81 81 81 80 70 76 61 56 55 55
57 57 58 60 61 61 62 60 60 60 62 63 63 63 63 62 61 62 62 62 65 65 65 65 65 66 67 68 69 70 72 73 75 77 78 79 80 80 79 79 80 79 78 78 77 77 76 77 77 77 78 78 79 81 82 81 82 73 68 70 56 55 54
56 56 57 57 58 61 61 60 59 60 61 63 63 63 62 62 61 61 61 63 65 65 65 65 65 65 66 68 69 70 72 73 74 76 76 78 80 80 80 80 80 79 79 78 78 78 77 77 78 77 77 77 78 79 80 81 81 84 72 65 61 56 55
56 57 58 58 58 59 60 60 60 60 60 62 63 62 62 62 62 60 61 63 64 65 65 65 64 65 66 68 69 70 72 72 74 75 75 77 80 80 81 81 80 80 79 79 79 78 77 77 78 78 78 78 79 79 81 81 81 81 81 70 66 60 56
55 56 56 56 58 61 60 59 58 59 60 61 62 62 62 62 62 62 63 63 63 64 64 64 65 65 66 67 69 70 71 72 73 75 77 77 79 81 82 82 81 80 79 79 79 79 79 78 78 78 78 78 78 79 80 80 80 81 82 79 75 73 67
54 55 56 57 58 59 59 58 58 58 59 60 61 61 61 62 62 62 62 62 63 63 63 63 64 65 66 68 69 70 71 72 74 74 75 76 78 80 81 81 82 81 80 80 79 79 79 79 78 78 79 79 79 79 79 79 80 81 81 82 78 76 74
53 54 55 55 57 59 58 58 59 59 59 60 61 60 60 61 62 62 62 61 61 62 61 63 64 65 66 68 69 70 71 72 73 73 73 74 75 78 79 80 81 81 81 83 83 82 81 80 80 80 81 81 80 79 78 79 79 81 71 80 69 76 77
53 54 55 56 57 57 58 59 59 59 59 60 60 60 60 61 61 62 62 62 61 61 60 61 63 64 64 66 67 68 68 69 70 71 72 74 74 75 76 74 67 74 81 80 72 69 67 66 80 82 82 81 81 81 80 80 82 70 62 60 59 58 61
53 53 54 55 56 56 57 58 59 59 59 60 60 59 60 60 60 61 61 61 61 61 60 60 61 63 63 63 64 65 67 68 68 69 71 72 72 73 74 77 75 57 57 66 70 65 58 55 58 61 66 78 81 78 68 68 66 64 56 56 55 55 55
54 54 55 56 56 56 57 58 59 59 59 59 59 58 59 59 59 60 60 60 60 61 60 60 60 60 61 62 63 65 66 66 66 66 67 69 70 71 73 75 76 78 63 54 56 58 55 55 54 54 54 56 65 75 79 65 58 57 54 54 54 54 53

ECMWFFLT1_sfc_temp_102.txt.gz
Temp
89 90 89 90 90 91 92 92 91 92 92 91 91 92 93 93 91 91 90 87 86 86 86 86 86 86 86 87 88 88 89 89 89 89 89 89 90 90 90 91 90 90 92 91 91 91 91 91 91 91 91 90 90 90 89 89 88 90 89 89 89 89 89
84 87 89 91 90 91 91 92 91 92 92 92 92 91 93 92 91 91 89 88 87 87 86 86 86 86 87 87 88 88 87 88 89 89 90 89 89 90 91 90 90 90 90 91 92 91 91 92 91 91 90 90 90 90 90 89 89 89 90 89 89 88 89
84 85 86 86 88 91 91 92 92 93 92 93 94 93 92 91 91 90 89 89 87 87 88 87 86 87 87 87 87 87 88 89 89 89 90 91 91 93 92 91 91 92 93 92 91 92 93 91 91 91 91 91 92 90 90 90 89 90 89 89 89 90 88
82 83 84 85 86 87 91 92 91 94 94 95 94 94 93 91 93 91 91 90 89 88 87 88 88 88 88 87 87 87 87 88 89 91 92 92 92 92 91 91 90 92 92 93 94 93 95 92 91 91 90 90 90 91 91 91 92 90 90 89 89 90 89
80 83 83 83 85 87 90 88 86 88 94 96 96 94 94 94 94 93 93 93 93 90 91 91 92 90 89 89 90 90 88 89 89 91 92 92 92 92 91 93 92 92 93 94 93 92 91 91 92 91 90 90 91 91 90 90 91 90 89 89 89 90 90
76 79 81 83 84 86 89 92 95 96 94 96 96 96 97 97 96 96 95 93 93 94 92 91 91 90 89 90 91 91 90 89 89 89 91 91 91 92 92 92 93 93 94 93 95 94 92 92 92 92 92 93 93 93 93 92 92 92 91 89 89 91 92
75 77 79 80 82 83 88 90 91 94 96 96 97 98 97 97 96 96 97 96 95 93 93 93 93 92 90 90 90 89 89 90 89 90 92 92 92 91 91 92 92 94 95 94 93 94 94 92 91 92 92 93 92 93 91 90 91 92 91 89 89 89 90
75 76 78 80 79 79 82 85 90 95 96 96 91 90 96 97 97 95 95 97 96 96 95 95 94 92 90 90 91 90 90 91 92 91 91 92 93 91 92 93 92 93 93 94 93 93 94 93 94 93 92 93 92 91 92 90 89 93 92 90 89 89 93
77 76 77 78 78 78 79 83 86 86 87 92 95 95 97 97 97 96 95 96 96 96 96 98 96 95 91 90 90 90 91 92 92 91 91 93 93 94 95 95 94 93 92 94 95 94 93 94 94 92 92 92 92 91 91 90 91 92 92 91 90 89 91
75 75 76 76 75 76 77 80 82 82 83 83 84 91 95 95 96 97 96 96 97 96 97 97 97 96 92 91 91 92 91 90 92 94 94 94 94 95 95 97 95 94 93 94 96 96 93 94 94 93 90 91 90 90 90 91 91 92 93 91 91 91 90
75 74 74 74 72 72 74 76 77 79 81 81 82 84 84 91 95 97 96 96 96 96 97 96 96 96 94 93 93 93 91 92 93 93 93 94 96 96 97 97 98 96 94 95 95 97 96 92 93 92 90 92 91 90 90 91 91 91 93 93 93 92 92
75 74 72 71 71 71 70 70 74 77 80 82 84 84 83 83 90 96 96 97 97 97 96 96 97 96 94 95 94 92 92 92 93 94 94 94 96 97 97 98 97 97 96 96 95 95 97 95 94 93 91 91 92 92 91 90 91 90 91 94 95 93 93
76 74 73 72 71 70 68 67 69 72 76 82 84 84 84 84 85 87 92 94 97 97 95 94 94 93 94 94 94 92 92 93 93 93 94 94 95 97 97 98 99 98 98 96 95 96 96 97 94 93 93 91 92 93 91 91 92 90 90 91 93 93 92
74 77 76 74 73 70 67 67 68 69 72 77 81 82 82 82 84 86 86 91 95 97 97 96 93 91 91 92 91 90 92 93 94 94 93 93 92 94 96 97 97 96 96 96 95 96 96 97 97 95 95 93 93 93 92 91 91 90 90 91 92 93 93
75 75 75 74 72 70 69 68 67 68 70 72 76 78 80 80 79 80 85 87 89 95 97 94 93 90 90 89 89 89 90 91 93 93 93 92 91 91 93 95 95 95 95 94 95 98 98 98 98 96 94 94 93 93 94 93 92 93 92 90 90 92 93
74 74 74 73 71 71 70 69 68 68 69 69 71 73 78 78 77 78 81 83 88 86 90 94 92 90 89 89 88 90 90 90 90 91 91 91 90 89 91 93 94 96 94 94 94 94 94 94 95 97 96 94 93 93 94 93 94 88 80 82 91 91 94
73 72 74 72 71 72 71 71 70 69 69 69 70 72 74 75 77 78 80 82 85 85 89 92 92 91 90 89 89 89 89 88 88 89 89 89 89 89 89 90 92 92 91 91 92 91 91 92 94 95 97 96 95 94 94 95 95 79 71 72 75 90 92
72 72 72 72 72 73 72 73 73 72 71 70 71 72 72 71 74 76 76 79 81 87 90 89 89 91 89 90 88 88 88 88 88 87 87 88 87 87 88 90 89 89 89 90 91 89 92 92 91 92 95 96 96 96 96 95 85 71 69 70 70 77 91
70 73 72 72 72 72 73 73 74 74 74 75 74 73 74 73 72 72 75 77 78 80 83 86 88 88 88 90 89 88 87 87 87 87 87 86 87 87 87 87 88 89 89 90 91 92 89 89 91 91 92 93 92 95 96 96 81 69 68 68 68 68 79
70 71 73 74 73 74 72 73 73 74 75 75 76 78 78 77 75 76 77 79 80 80 80 81 83 84 85 87 88 88 88 87 87 86 86 87 86 86 86 87 86 89 92 91 90 89 89 91 89 90 89 90 90 90 94 94 84 68 66 66 66 66 72
71 70 70 70 71 73 73 72 72 72 73 76 77 77 77 77 78 77 77 78 78 79 79 81 81 81 81 82 85 88 88 87 87 86 87 87 86 85 85 86 86 88 90 93 91 89 87 89 89 89 89 91 92 91 94 96 78 67 64 64 63 64 69
72 73 71 71 71 70 71 72 72 71 71 74 76 78 77 77 78 76 76 78 79 77 76 76 77 80 80 80 82 84 86 88 87 87 87 87 86 86 85 85 85 85 88 89 93 93 92 91 91 91 90 91 92 92 91 96 74 67 64 62 63 63 79
73 73 74 74 74 73 73 74 73 73 74 74 75 75 76 76 75 74 75 77 78 77 77 75 73 75 76 79 80 80 81 84 88 87 87 87 86 86 87 85 86 87 88 88 90 92 93 92 92 90 91 91 91 90 90 94 79 65 63 61 61 67 83
75 75 75 75 75 76 75 75 75 75 75 75 75 75 76 76 76 74 73 74 76 76 75 74 71 72 75 76 78 77 78 80 82 86 86 86 86 87 87 89 89 89 89 89 89 91 94 94 93 92 92 93 92 94 91 92 83 64 61 60 59 71 84
74 75 75 75 75 75 75 74 74 75 76 76 75 75 76 75 75 74 72 73 74 74 72 72 71 71 73 74 75 76 78 79 80 82 86 86 88 89 88 88 89 90 90 91 91 91 91 92 93 94 93 96 95 86 90 94 87 65 61 59 58 69 85
70 72 73 75 77 76 74 74 74 75 75 76 74 77 77 75 74 74 73 72 73 72 72 71 71 72 73 73 73 74 75 78 79 81 82 84 87 88 89 90 89 89 90 90 91 91 93 93 92 92 93 95 95 96 94 93 93 81 59 59 57 62 83
72 72 72 74 74 71 73 75 74 75 76 76 75 78 78 76 74 72 73 73 72 72 71 71 72 72 72 73 73 73 74 77 80 80 82 83 84 85 88 91 91 90 89 91 92 91 91 92 92 93 92 94 95 95 96 97 94 88 59 58 57 58 68
71 72 73 73 71 71 73 75 74 74 76 76 78 78 78 76 72 71 72 72 72 72 73 72 71 72 72 73 72 73 74 75 77 79 82 82 79 76 75 76 81 86 90 91 89 87 87 88 89 91 92 94 94 94 94 92 84 96 66 58 56 57 58
67 68 69 69 71 73 73 72 73 74 74 77 78 77 76 75 72 71 71 71 72 74 75 73 72 71 72 73 73 72 73 74 75 76 79 79 76 74 74 77 77 76 74 74 78 83 85 86 87 88 89 90 91 92 93 92 90 74 83 60 57 55 56
68 68 69 71 72 72 72 70 71 72 73 75 75 75 75 73 72 71 71 71 73 74 74 74 73 72 71 73 73 73 73 74 75 76 77 77 75 74 75 76 77 75 75 76 81 84 84 85 86 86 87 88 90 92 93 92 94 79 72 72 55 57 55
67 67 67 68 69 69 70 69 68 69 70 72 73 74 74 74 72 71 70 72 74 73 73 73 73 71 70 71 73 74 74 75 76 77 77 77 76 75 75 76 77 75 77 78 79 81 82 83 84 83 85 86 87 88 90 93 93 96 79 67 61 56 55
67 68 68 68 68 68 68 68 68 68 68 69 72 72 74 74 74 71 71 74 73 73 73 72 72 71 70 71 72 74 76 76 76 75 76 75 76 76 76 76 76 77 78 79 80 81 82 83 83 85 85 85 84 86 89 90 93 92 92 76 69 63 57
65 66 66 65 66 66 66 66 66 66 67 67 70 72 74 74 75 74 74 73 74 74 73 72 71 70 71 70 71 73 76 75 75 73 72 74 77 76 74 75 78 78 76 77 79 82 83 83 83 82 81 84 87 86 85 89 91 91 92 91 86 82 75
65 65 66 66 66 66 66 65 65 65 66 66 68 70 71 73 74 75 75 75 75 75 72 70 70 70 71 71 71 72 74 74 72 72 73 72 74 74 75 74 74 74 75 74 76 76 79 81 81 80 82 84 83 85 89 89 89 89 89 88 88 89 86
64 64 64 64 65 66 65 65 65 65 66 66 68 68 69 71 73 75 74 74 74 72 71 69 69 70 70 71 72 71 72 73 74 75 75 72 72 74 75 74 74 72 72 74 75 75 76 77 76 77 82 82 78 77 79 82 82 83 68 82 75 87 89
63 63 64 65 65 66 65 66 65 65 65 66 68 68 68 70 72 74 76 75 74 72 70 69 69 69 69 71 72 72 72 71 72 74 75 76 72 72 72 70 61 65 72 72 68 63 58 58 70 75 77 77 76 77 75 75 77 66 57 57 60 60 62
62 62 62 63 63 63 64 65 65 65 65 66 67 68 68 69 71 73 74 74 73 72 70 69 68 68 69 71 71 70 69 70 71 72 72 73 71 71 70 72 72 55 52 56 61 58 53 50 50 51 55 68 75 74 65 64 60 56 55 54 54 55 55
63 63 63 63 63 63 63 64 65 65 65 67 67 68 68 69 71 72 74 74 72 71 69 69 68 67 68 69 70 70 69 69 68 69 70 71 70 69 68 69 69 71 61 53 54 54 52 52 52 52 50 51 56 66 74 63 56 54 54 54 53 53 52

ECMWFFLT1_sfc_temp_105.txt.gz
Temp
76 77 81 84 85 88 88 87 90 94 94 94 94 96 96 96 94 93 92 89 87 87 88 88 89 89 89 90 90 90 91 90 90 90 91 91 92 91 91 92 91 90 93 92 91 92 92 93 92 93 92 92 91 91 90 90 90 91 90 90 90 90 90
75 78 76 79 82 87 89 90 87 89 94 95 95 94 96 95 94 94 92 90 89 89 88 89 89 89 89 89 90 90 90 90 91 90 91 90 91 91 93 92 92 90 91 92 92 92 92 93 93 92 92 92 92 91 91 90 90 90 91 90 89 89 89
82 76 81 83 81 81 83 87 87 87 91 95 96 95 95 93 94 93 92 91 89 89 90 90 89 90 90 89 90 90 90 91 91 92 92 93 92 95 93 92 92 93 94 93 92 94 94 93 92 92 92 92 93 91 91 91 90 90 90 90 90 90 88
83 87 87 85 83 79 79 81 86 87 93 93 92 95 94 93 95 94 94 93 91 90 89 90 90 91 91 89 90 89 90 90 91 93 93 94 94 94 93 93 92 93 93 93 94 94 97 93 93 92 91 91 92 92 92 92 92 91 90 89 90 90 89
81 83 85 85 81 81 78 80 83 83 83 95 95 93 93 94 96 95 94 95 94 92 93 93 95 93 92 92 93 92 91 91 92 93 94 94 94 94 93 94 94 94 94 95 94 93 92 92 93 92 91 91 92 92 92 92 92 91 90 90 89 90 90
77 79 80 83 86 88 87 83 82 88 84 91 95 96 96 96 95 96 95 93 92 94 93 93 94 92 92 93 93 94 92 91 91 91 93 94 93 94 94 94 95 94 96 95 96 94 93 93 94 93 93 94 94 94 94 93 93 93 91 90 90 90 91
77 78 79 81 82 84 87 87 87 86 85 91 95 94 94 97 93 93 94 92 93 92 94 96 96 95 92 93 92 93 91 93 92 93 94 95 95 94 94 94 94 96 96 95 95 95 95 93 92 93 93 94 93 95 93 91 91 92 91 90 89 89 88
77 77 79 80 82 84 86 82 83 87 89 87 89 86 84 86 91 95 90 94 94 95 94 97 97 95 92 93 94 94 93 94 94 94 94 95 95 94 95 95 94 95 95 96 95 96 96 94 95 94 94 94 93 93 94 92 91 94 93 91 90 90 94
78 77 78 80 81 83 84 83 82 83 83 85 81 79 79 80 81 86 91 91 93 92 91 97 99 98 93 93 93 93 94 95 94 94 94 96 96 97 97 97 96 95 95 97 97 96 96 96 96 93 93 93 92 92 92 91 92 92 93 92 91 90 92
76 76 78 79 79 80 80 80 81 81 79 78 79 75 77 79 79 81 85 86 87 86 91 96 99 99 95 94 95 95 95 93 95 96 96 97 97 97 98 99 97 96 96 97 99 98 95 96 96 95 92 92 92 92 91 92 92 92 92 92 92 91 90
75 75 76 77 77 77 77 77 77 77 79 78 77 78 79 80 80 82 81 78 80 79 79 85 93 95 96 96 95 96 94 95 97 96 96 97 99 99 99 100 100 98 97 97 98 99 97 94 95 94 93 94 92 92 91 92 92 91 93 93 93 92 92
76 76 74 73 75 75 74 75 76 76 76 79 84 81 80 79 82 80 79 80 80 79 84 81 89 94 92 97 96 94 94 95 96 97 97 97 99 100 100 100 100 100 98 98 97 97 100 96 96 95 93 93 93 93 92 91 92 91 92 94 94 93 94
78 76 74 73 73 74 74 74 74 75 76 79 79 82 86 83 84 84 84 83 82 80 79 82 79 84 96 92 97 94 95 96 96 96 98 97 98 100 100 100 101 101 100 99 98 98 99 100 96 95 95 93 94 94 92 92 93 91 91 92 93 94 93
77 77 75 73 73 73 73 73 74 75 76 76 79 80 82 83 86 84 84 84 84 86 87 84 86 83 91 96 93 92 95 95 97 97 96 97 95 97 100 101 100 99 99 99 97 98 99 100 99 97 96 95 94 94 93 92 92 91 91 91 93 94 94
79 77 75 73 72 73 73 74 73 75 76 76 78 78 80 82 83 85 84 82 83 84 82 82 83 87 93 93 92 92 93 94 96 96 96 96 95 95 97 98 98 98 98 97 98 100 99 100 101 99 96 95 94 94 95 95 93 93 92 91 91 93 94
79 78 76 74 73 74 74 73 74 74 75 75 78 78 80 80 81 82 83 83 85 81 82 82 82 84 87 89 92 93 92 93 93 94 94 94 94 93 95 97 98 100 98 97 98 97 96 96 97 100 99 96 95 95 96 95 96 89 83 85 92 92 95
77 77 77 77 74 75 74 74 73 73 74 75 80 81 80 80 80 82 83 82 82 80 79 80 79 76 80 84 91 91 91 91 92 91 92 92 93 93 93 93 96 96 95 95 96 94 94 96 97 98 100 99 97 95 97 97 98 82 74 75 79 91 93
78 76 76 77 77 75 74 75 74 74 74 75 76 78 78 77 79 80 80 83 83 81 79 79 77 78 82 84 84 87 87 87 87 89 90 91 91 91 91 93 93 92 93 95 96 93 96 96 95 95 97 99 99 98 97 97 88 73 72 73 73 80 92
74 78 77 75 75 74 75 75 76 75 76 77 78 77 79 80 80 78 79 79 81 82 80 79 78 77 76 79 80 82 86 86 87 87 88 89 90 90 90 90 91 92 93 95 95 96 92 92 94 94 95 96 95 98 99 98 83 70 71 71 71 72 83
75 73 74 75 76 76 74 75 75 76 76 77 78 81 81 80 81 81 81 82 83 82 81 79 79 77 76 77 78 81 81 81 84 85 86 86 87 89 89 89 89 92 94 94 93 92 92 94 92 93 92 93 93 93 97 98 84 68 68 69 69 70 75
75 74 73 73 74 75 74 74 75 75 75 77 78 78 79 79 80 80 81 82 82 82 81 82 79 77 78 79 80 80 80 83 84 85 86 86 85 86 87 88 89 90 92 95 94 92 90 92 91 91 92 94 95 94 97 100 78 67 67 66 66 68 72
76 77 74 74 74 74 74 74 74 74 74 76 78 78 79 80 80 79 79 82 82 80 79 78 77 77 78 79 80 81 81 82 82 83 84 85 85 83 83 87 87 87 90 92 95 94 94 93 93 93 93 93 94 95 94 98 77 66 65 64 65 66 81
77 77 78 78 78 76 76 76 76 76 76 78 78 77 78 79 78 78 79 80 81 81 80 77 75 75 75 77 79 79 79 79 79 80 82 83 84 84 85 86 87 89 90 90 92 94 95 93 94 92 93 94 93 93 93 96 82 66 63 62 63 68 84
79 78 79 79 79 80 78 77 78 78 78 78 78 78 79 78 77 77 76 77 79 79 79 78 76 75 75 75 77 76 78 79 80 81 82 82 82 83 84 85 87 89 90 91 91 91 94 95 94 94 93 94 94 95 93 95 85 65 62 61 61 71 85
77 78 78 78 78 78 77 76 76 78 79 79 79 78 79 79 77 75 74 76 77 78 77 76 75 75 75 74 75 76 78 81 82 82 83 83 83 80 75 76 77 79 82 83 90 91 91 91 93 95 95 97 96 89 93 95 88 65 62 60 59 70 86
74 76 77 78 80 78 76 76 77 78 79 79 78 79 80 79 78 76 74 75 77 76 76 75 75 75 75 75 75 77 78 80 80 81 83 84 84 79 73 76 75 75 75 77 77 78 82 90 91 93 95 97 97 97 96 95 95 81 60 60 58 62 84
76 76 76 77 77 74 76 77 77 77 78 79 78 80 82 79 77 75 75 75 75 75 75 76 77 77 76 76 76 77 78 80 81 80 82 84 83 81 75 74 74 75 74 76 76 76 78 82 87 89 91 96 97 97 97 98 95 88 60 59 58 59 70
75 75 76 76 74 75 76 77 76 76 78 78 80 81 81 78 75 74 75 75 75 75 77 77 77 77 77 76 76 77 78 79 78 79 82 82 81 79 76 75 76 77 77 76 77 78 78 81 83 86 90 95 96 96 96 95 88 98 65 60 57 58 60
71 72 72 72 74 76 76 74 74 75 75 78 79 78 77 77 74 74 74 74 75 77 78 77 77 77 76 76 76 76 76 77 77 78 80 81 81 80 79 77 76 76 76 76 77 78 79 80 83 85 88 90 93 93 94 94 92 77 83 60 58 56 57
72 72 72 75 75 74 74 72 73 73 74 75 75 75 75 74 73 73 73 74 77 78 77 77 77 76 76 76 77 76 77 77 78 79 80 80 79 79 79 78 77 77 77 77 77 78 78 79 82 84 86 87 88 92 94 93 96 83 75 70 55 56 55
70 70 71 71 72 72 72 71 70 71 71 73 73 74 74 75 73 73 72 75 77 77 77 76 76 76 75 76 77 77 78 78 78 79 79 79 80 79 79 79 79 76 77 77 77 77 78 79 81 81 83 84 84 83 89 91 87 87 78 65 59 56 55
70 71 71 72 71 71 70 70 70 70 69 71 72 73 73 74 74 72 73 76 77 77 77 77 76 74 74 76 77 77 79 78 79 78 78 77 78 79 81 80 80 80 79 77 77 78 77 77 78 76 77 74 75 75 76 76 77 79 83 77 67 61 57
69 69 69 68 69 68 68 68 68 69 70 69 71 72 74 73 74 73 74 75 77 78 78 77 75 73 74 74 76 77 78 77 78 77 76 77 79 80 81 81 80 80 78 77 76 76 75 75 73 72 72 72 72 72 72 75 78 79 82 81 82 82 74
68 68 69 69 68 68 68 67 67 68 68 68 70 71 72 72 73 73 74 77 78 79 77 75 74 74 73 74 75 76 77 77 75 75 77 77 77 79 80 81 82 81 79 78 76 73 73 74 73 72 72 72 73 74 74 77 78 80 79 78 83 85 84
68 68 68 68 68 68 67 67 67 67 67 68 70 70 70 71 72 73 73 74 75 76 75 74 74 73 73 74 75 75 76 77 77 77 77 76 76 79 80 79 79 77 78 81 78 75 74 74 71 71 73 74 73 72 73 75 77 79 68 72 61 70 77
68 68 68 69 69 68 67 67 67 67 67 68 69 70 70 70 71 72 75 75 75 75 74 74 74 73 73 74 75 75 77 77 77 77 76 78 76 75 75 74 65 69 76 76 72 65 59 59 70 74 75 73 73 76 73 74 77 66 58 55 55 55 58
67 67 67 67 66 66 66 67 67 67 66 68 69 69 70 70 72 72 73 74 74 74 74 74 73 73 74 74 75 75 74 74 75 76 75 75 74 73 72 73 76 58 53 59 63 60 54 50 50 52 55 65 70 70 63 61 57 55 54 54 56 54 52
67 67 66 67 66 66 66 66 66 67 67 68 69 69 69 71 72 72 74 74 74 74 74 74 72 71 72 73 74 73 73 74 73 74 74 74 74 74 72 72 71 74 61 49 53 54 50 49 48 47 47 49 55 63 68 62 56 53 53 52 51 51 51

ECMWFFLT1_sfc_temp_108.txt.gz
Temp
77 74 74 75 76 77 76 83 89 91 91 91 92 93 93 93 90 89 88 86 85 85 86 86 86 86 86 86 87 87 87 87 87 87 87 87 87 87 87 88 88 87 88 87 87 87 87 88 87 89 88 88 88 88 87 87 87 88 88 88 86 86 87
74 73 73 74 75 73 74 84 87 88 91 92 92 91 93 93 90 90 88 87 86 86 86 86 86 86 86 86 87 86 86 87 87 87 88 86 87 87 88 87 87 87 87 88 88 88 87 88 89 88 88 88 88 88 88 87 87 87 87 87 86 85 87
73 74 73 73 75 77 80 82 85 89 89 93 93 93 93 90 91 89 88 88 86 86 87 87 86 87 87 87 86 86 87 88 88 88 88 89 89 92 90 88 88 89 90 90 89 90 90 89 88 88 88 88 89 87 87 87 87 88 87 86 86 86 85
75 73 74 76 76 79 82 83 86 90 90 91 89 91 93 90 93 91 90 89 87 87 86 87 88 88 88 87 87 86 87 87 88 89 90 90 90 91 89 89 88 90 88 89 92 92 93 90 90 88 89 88 88 88 88 88 88 88 87 86 86 86 85
78 81 75 74 76 77 81 84 85 84 87 88 87 83 82 85 95 94 93 91 90 88 89 90 91 90 89 89 90 89 88 88 88 90 90 91 89 89 90 91 90 91 89 91 90 89 88 88 89 88 88 88 89 88 88 88 88 87 86 85 85 86 85
77 79 80 78 78 80 82 83 83 85 84 80 80 80 79 80 78 94 96 91 90 91 90 89 90 89 88 90 90 90 89 88 88 88 89 90 89 90 90 90 91 91 92 91 92 91 91 90 90 89 89 90 90 90 90 89 89 89 87 86 86 86 86
75 77 79 78 78 79 80 83 85 83 80 79 79 80 79 79 78 77 80 86 89 89 91 89 90 90 89 90 89 89 88 89 89 90 91 92 91 91 90 90 90 92 92 91 90 91 91 90 89 89 89 90 89 91 88 87 88 88 87 86 86 86 85
74 75 78 78 79 79 80 81 82 82 80 80 80 79 79 80 79 78 79 78 87 91 89 90 89 90 90 90 90 91 90 90 91 91 91 92 92 92 91 91 91 91 91 92 91 91 92 90 92 90 90 91 89 88 90 87 87 90 88 86 86 86 89
75 75 76 78 78 79 80 80 80 81 81 79 79 78 80 82 83 83 80 79 87 86 87 84 87 92 90 90 90 90 91 91 91 90 91 92 93 93 94 93 93 92 91 93 93 92 92 91 92 89 89 89 88 88 89 87 88 89 88 87 86 86 88
73 74 75 77 77 78 78 79 79 79 79 79 80 79 78 80 80 80 83 86 85 87 89 87 84 84 80 77 83 92 92 90 91 92 92 93 93 93 94 95 94 93 93 94 95 94 92 92 91 90 87 88 88 88 88 88 89 89 89 88 88 87 86
73 73 74 75 76 77 77 77 76 75 76 76 76 76 76 75 76 78 78 82 84 83 85 83 82 81 79 78 77 79 87 93 93 92 92 93 94 95 95 96 96 94 94 94 95 95 93 91 91 88 88 90 89 88 87 88 88 88 89 90 89 89 89
73 73 72 73 74 74 74 75 75 75 74 75 78 78 77 77 78 81 81 81 83 81 84 82 82 82 79 79 77 76 76 82 93 93 93 93 95 95 96 96 96 95 94 95 94 94 95 92 93 91 88 89 89 89 87 87 88 87 88 90 90 89 89
75 73 73 72 72 73 74 74 75 75 75 74 76 78 79 79 79 80 80 81 83 83 83 83 82 80 80 79 79 78 76 78 84 93 95 94 95 96 96 96 98 97 95 95 95 95 96 95 92 91 91 89 90 90 88 87 88 86 87 88 89 89 88
75 76 75 74 73 72 72 72 75 76 75 74 73 76 77 79 80 79 79 79 80 82 83 83 83 82 81 79 78 77 77 77 78 80 89 93 91 93 96 97 97 96 95 94 94 95 96 96 94 93 93 91 91 90 89 88 88 87 87 87 88 89 89
77 76 75 74 73 73 72 73 73 74 76 77 78 76 76 77 77 79 79 80 79 80 80 80 80 80 81 81 78 77 77 77 78 77 76 86 92 92 93 95 94 93 93 93 94 97 96 97 97 93 92 92 90 90 91 90 89 89 88 87 87 89 90
78 78 75 74 74 75 74 74 74 74 75 75 77 77 77 75 76 76 76 78 79 77 78 80 80 79 76 76 77 77 78 77 77 78 78 75 78 87 92 93 94 96 94 94 94 92 91 91 93 95 93 92 90 90 92 91 91 86 82 83 88 88 91
76 76 76 75 74 74 74 74 74 75 75 75 76 76 76 75 75 76 75 76 78 75 76 80 79 79 78 76 79 79 77 76 76 76 76 78 77 76 82 90 93 91 90 90 91 91 89 91 92 95 96 93 93 91 92 93 93 80 74 74 78 88 87
76 74 75 76 75 75 74 74 74 75 75 75 76 77 76 75 76 76 73 75 77 76 76 77 77 78 78 80 79 78 78 77 78 77 76 77 78 78 76 78 86 89 89 91 92 88 92 92 91 90 93 96 94 93 93 92 85 73 72 72 73 79 88
72 74 74 74 74 74 74 74 74 74 76 78 77 77 78 78 78 76 77 76 76 78 78 78 78 77 77 78 77 77 77 78 77 77 77 78 79 79 79 78 78 85 90 92 93 92 89 88 91 90 91 92 90 93 94 93 83 71 70 71 71 72 81
73 73 74 75 75 75 74 74 74 75 76 76 78 80 81 80 80 80 80 80 80 79 78 77 76 76 76 76 77 77 77 77 77 77 78 79 80 81 81 81 81 83 89 92 90 88 89 92 90 89 88 89 88 88 93 93 84 70 68 69 69 70 74
75 73 72 73 73 74 74 73 73 74 75 77 78 79 80 79 80 80 80 81 81 81 79 78 76 75 75 76 76 75 75 75 76 77 78 78 79 80 81 80 80 80 77 78 82 85 87 90 89 89 89 91 92 91 94 98 79 69 67 66 67 69 72
76 76 74 74 73 73 73 73 73 73 74 76 78 78 79 79 79 78 78 80 80 80 79 78 76 76 75 75 75 75 74 74 75 75 77 77 76 75 76 75 77 76 76 75 74 74 76 81 89 91 91 91 92 92 91 95 78 66 65 65 66 67 77
77 77 77 77 78 75 74 75 75 75 76 77 77 76 77 79 79 77 78 78 79 79 79 77 76 75 75 75 75 74 74 75 75 76 76 76 76 75 74 74 74 75 76 76 76 75 77 78 80 85 90 92 90 90 90 92 82 66 62 63 64 67 79
79 78 79 78 78 78 76 76 77 77 78 77 77 76 78 79 78 77 75 75 77 77 77 76 75 76 75 75 76 75 75 75 76 76 76 76 75 75 73 73 74 76 76 76 76 75 77 77 79 81 84 89 92 93 90 91 85 67 60 61 62 69 80
77 78 78 78 77 76 76 75 76 78 78 78 77 76 78 79 77 76 74 75 75 76 75 74 74 74 75 75 76 77 77 76 75 75 75 75 75 74 73 73 74 76 75 75 76 77 78 79 80 82 84 89 90 87 90 92 87 70 60 60 60 67 80
74 75 76 78 77 76 76 76 76 76 77 77 75 78 79 78 76 75 74 74 75 74 74 74 74 75 75 76 77 77 77 78 76 76 75 74 75 75 73 74 74 75 75 76 76 76 77 79 79 82 84 88 90 92 92 91 91 84 60 59 58 61 79
75 75 75 76 75 75 75 76 75 75 76 75 75 78 79 76 75 73 73 73 74 73 74 75 75 75 75 75 77 78 78 78 78 78 79 79 76 76 74 75 75 75 75 76 76 76 77 78 80 82 83 86 89 91 92 94 87 84 61 56 57 58 66
74 74 76 75 75 74 74 75 74 74 75 75 77 77 76 74 72 72 72 73 73 74 76 76 76 75 75 75 75 77 78 78 77 79 80 80 79 78 77 77 77 77 77 77 76 76 76 77 78 79 80 84 86 85 80 76 71 76 64 58 55 54 57
71 71 71 72 73 74 73 71 72 72 72 74 75 74 74 73 71 71 71 71 73 75 76 76 76 75 75 75 75 75 76 77 78 78 79 79 79 78 77 77 78 78 77 77 77 77 77 76 78 78 79 81 84 80 73 76 77 68 75 63 58 57 55
71 71 72 74 74 72 72 70 70 70 72 73 73 73 72 71 70 70 70 71 74 75 76 76 76 76 75 74 74 74 75 77 78 79 79 79 77 77 76 76 77 77 77 76 76 76 76 77 78 78 78 79 79 76 76 75 76 73 72 70 58 56 56
70 70 70 70 71 70 70 69 68 69 70 71 71 72 71 72 70 70 69 71 73 73 74 75 76 75 75 74 74 74 76 76 77 78 78 78 78 76 77 77 77 76 78 77 76 76 75 76 78 77 77 77 76 75 75 76 75 77 74 68 64 57 54
70 70 71 70 69 69 69 69 68 68 68 69 70 70 71 71 71 68 69 72 72 73 73 74 74 74 75 75 74 74 76 76 77 78 77 77 77 77 77 78 78 78 78 76 76 76 75 74 74 74 75 75 76 75 75 75 75 75 77 75 71 63 56
68 69 68 68 68 68 68 67 67 67 67 67 69 70 71 71 71 70 71 71 73 74 73 73 73 73 73 73 74 74 75 74 76 76 76 77 78 78 78 79 80 79 77 76 73 72 72 74 74 73 73 73 75 75 75 75 75 75 77 77 77 75 69
67 68 69 69 69 68 67 67 66 66 66 66 68 69 69 70 70 71 71 73 73 73 72 71 71 72 73 74 74 74 74 74 75 75 77 77 77 77 78 78 77 76 75 74 74 72 71 72 71 71 73 74 75 76 76 76 77 76 76 78 77 76 77
68 68 68 67 68 68 66 66 65 66 66 66 68 68 68 69 70 71 71 71 72 72 71 70 70 71 72 74 74 73 74 74 75 76 76 75 76 77 77 75 75 74 73 76 75 74 73 72 71 71 72 71 72 73 75 75 76 78 68 72 65 71 76
68 68 67 68 68 67 66 66 66 66 66 66 67 67 67 68 68 70 72 72 72 71 70 70 70 70 71 73 73 74 74 74 75 74 74 75 75 75 75 74 65 68 73 73 70 66 60 59 69 73 72 70 70 71 70 72 73 58 52 53 54 54 56
67 66 66 67 66 66 66 66 66 66 65 65 66 66 66 66 67 68 70 70 71 71 70 70 69 69 71 72 73 73 73 73 73 73 72 73 73 73 73 74 74 58 56 59 61 57 51 49 49 50 53 62 67 67 61 60 57 54 53 52 51 49 49
68 67 66 67 66 65 65 65 65 64 64 65 64 64 64 65 66 66 69 69 70 70 69 69 69 68 69 71 72 72 71 72 71 72 72 71 72 72 72 72 71 73 62 58 58 54 50 49 49 48 47 48 52 60 66 60 54 52 50 48 47 47 47

ECMWFFLT1_sfc_temp_111.txt.gz
Temp
73 73 72 73 74 75 74 75 75 79 84 84 84 86 87 85 83 82 82 81 80 79 79 80 80 80 80 80 80 80 80 80 81 80 80 80 81 80 81 81 81 81 81 80 80 81 82 83 82 83 82 82 82 82 81 81 81 82 80 81 82 82 81
73 72 72 73 74 73 73 74 76 78 81 85 86 85 87 85 83 83 81 81 81 80 80 80 80 80 81 79 81 80 79 80 81 81 81 80 81 80 81 81 81 81 81 81 81 82 82 83 83 82 82 82 82 81 82 81 81 81 81 80 80 80 80
69 71 71 72 73 74 74 74 75 78 80 85 87 86 87 82 84 83 82 82 81 81 82 81 81 81 81 80 79 80 80 81 80 81 81 81 81 83 83 82 81 82 83 83 83 83 83 83 82 82 82 81 83 81 81 81 81 81 80 80 80 80 79
71 70 71 73 73 74 75 75 76 77 78 77 78 84 86 82 86 84 83 83 82 81 81 81 82 82 81 81 80 79 80 80 82 82 83 82 82 82 82 81 81 83 82 83 85 86 87 83 82 82 84 81 81 82 81 81 82 81 81 80 80 80 79
70 72 71 71 72 73 74 75 74 72 75 79 80 76 77 78 82 84 85 84 84 83 83 83 84 83 83 82 83 82 81 81 82 82 83 82 82 82 82 83 82 83 82 84 83 84 82 83 83 82 82 81 81 81 82 81 82 80 81 80 80 80 80
69 70 70 71 72 72 73 74 73 74 75 77 77 77 78 78 79 79 78 78 82 85 84 84 84 83 83 83 84 84 82 81 81 81 82 82 82 83 81 82 84 83 84 84 84 85 83 84 83 83 83 83 83 83 83 82 82 82 80 80 80 80 81
70 70 71 71 71 72 72 73 75 75 76 74 74 75 77 78 76 75 77 78 78 77 80 82 83 85 83 83 83 82 82 83 82 82 83 83 83 84 82 82 83 84 84 84 83 84 83 83 83 83 83 83 82 84 82 81 81 82 81 80 79 79 79
71 71 71 72 72 72 72 72 73 75 75 74 75 76 77 77 76 76 78 77 76 74 73 74 74 72 75 82 85 83 83 84 84 84 83 84 83 84 83 83 82 84 82 84 83 85 85 84 85 84 83 84 82 81 83 81 81 83 81 80 80 79 83
73 73 73 72 73 72 71 71 72 74 74 74 74 75 76 75 77 77 76 75 76 75 74 76 76 77 75 72 78 83 83 84 84 84 83 85 84 85 86 85 84 84 84 84 85 84 85 84 85 83 83 83 82 82 81 81 82 82 82 81 80 80 81
71 71 72 73 74 74 73 70 71 72 73 72 72 73 73 74 75 76 76 76 76 75 76 77 76 77 75 75 74 81 84 84 84 85 85 85 85 86 87 87 87 84 86 85 86 85 84 85 85 82 82 83 81 82 81 82 82 82 82 81 81 81 80
70 70 71 72 72 72 73 71 69 70 73 74 73 73 74 74 74 73 74 76 75 76 77 75 74 75 76 74 74 76 80 82 85 86 85 86 86 87 88 88 88 87 86 87 87 87 85 83 85 82 81 84 82 81 81 81 82 82 82 82 83 82 82
70 70 69 70 70 71 70 71 72 71 70 71 72 73 73 75 75 75 74 76 77 76 77 76 77 77 75 75 75 73 77 79 81 83 86 87 87 87 88 89 88 88 88 87 87 86 87 85 85 85 82 82 83 82 81 80 81 81 82 83 83 82 83
69 69 70 71 70 70 71 71 72 72 71 72 71 72 73 74 75 76 76 75 75 76 76 76 75 75 75 75 74 75 76 77 78 78 79 80 81 83 84 87 90 89 89 89 89 88 87 88 85 85 84 83 84 83 81 81 81 80 81 82 82 82 82
71 71 71 71 71 71 70 70 71 73 73 73 71 72 72 72 74 75 76 76 76 75 75 75 75 75 75 74 73 73 74 75 77 77 76 77 76 77 78 79 82 85 88 88 88 89 88 88 88 85 85 85 85 84 83 81 81 79 80 81 82 82 81
70 71 71 70 70 70 70 70 70 71 72 73 74 73 73 73 73 73 76 75 75 76 75 76 75 75 75 73 72 72 74 75 76 76 77 77 75 77 78 79 79 80 82 85 89 90 90 89 89 87 85 85 84 84 84 83 83 82 81 80 81 82 81
70 70 70 70 70 71 71 72 72 71 71 71 72 72 73 73 73 73 73 73 74 73 74 75 75 75 75 75 74 75 75 75 75 75 76 76 75 75 77 79 79 80 80 81 85 88 88 88 86 88 87 85 84 84 85 84 85 83 79 79 83 82 84
70 69 69 69 68 69 70 71 71 71 71 71 72 73 73 72 72 73 73 72 72 74 75 75 74 75 76 75 75 75 75 75 74 74 74 75 76 76 76 77 79 78 78 79 77 80 83 87 88 87 88 88 86 85 86 87 87 79 72 73 76 83 82
68 68 69 69 69 69 69 70 70 70 71 71 71 72 72 72 74 73 72 73 74 73 73 72 72 72 73 75 75 74 74 74 75 75 74 75 74 75 76 77 77 77 77 77 77 77 80 83 86 87 86 88 88 86 87 86 82 73 71 71 71 77 83
67 69 68 68 68 68 69 69 70 70 71 73 73 72 73 74 74 73 74 73 72 73 73 72 72 71 72 73 73 72 73 73 73 74 74 75 76 76 76 76 76 76 76 75 77 78 77 77 80 84 86 86 85 87 87 87 79 71 70 70 70 70 78
67 67 68 68 69 68 67 67 67 70 72 72 73 75 75 74 75 75 76 76 75 74 73 72 72 71 71 71 71 71 72 72 72 73 74 75 75 75 76 75 74 74 74 74 74 77 78 79 77 78 79 83 83 83 87 86 80 71 68 68 68 69 72
67 65 65 65 66 67 65 65 66 67 68 71 73 73 74 74 75 74 74 75 75 75 73 74 73 71 71 71 71 71 71 72 72 73 73 74 75 75 74 73 73 74 75 75 75 76 76 78 78 78 79 81 84 83 84 88 77 69 67 65 65 68 70
69 69 66 66 65 64 65 66 66 66 67 70 70 72 72 73 73 72 71 73 73 73 73 72 71 72 72 71 72 72 72 72 71 71 73 74 74 74 74 74 74 74 74 75 75 76 77 77 78 79 79 81 82 84 85 89 74 68 67 65 64 66 74
71 71 70 68 68 66 66 67 67 68 68 68 69 69 70 71 72 71 71 72 72 71 71 70 70 70 71 72 73 73 73 73 73 72 73 73 73 73 74 73 73 73 74 74 74 74 75 76 78 78 80 81 81 81 82 84 79 70 62 64 63 65 75
72 71 71 70 69 69 67 68 69 70 69 69 69 69 69 70 70 69 68 69 70 70 70 70 69 70 70 70 72 72 72 73 73 72 73 72 72 73 73 73 73 73 74 73 73 74 75 77 77 78 80 80 81 83 82 84 72 61 60 57 61 67 75
70 71 70 70 68 68 68 68 69 71 70 69 69 68 69 69 69 68 67 68 68 68 68 67 67 68 69 69 70 72 73 73 73 73 73 73 72 73 72 72 72 73 73 73 74 74 74 76 76 77 79 81 82 82 78 73 72 66 65 60 57 62 73
66 68 69 69 69 68 67 67 67 68 68 68 67 70 70 68 67 67 67 67 67 67 67 67 67 68 68 68 70 71 72 73 73 73 73 72 73 73 73 73 73 73 73 73 73 73 74 76 76 77 78 80 81 84 75 74 75 74 63 63 57 57 70
67 68 68 69 68 70 67 66 66 66 67 66 66 69 70 68 66 65 66 66 65 65 67 68 68 69 68 68 68 70 72 73 72 73 75 76 73 74 75 74 73 73 73 73 73 74 74 75 76 77 77 79 80 81 74 77 77 76 63 58 57 56 62
68 68 69 69 70 68 66 67 66 65 67 67 68 68 68 66 64 65 64 64 64 66 68 68 69 69 68 68 68 69 71 71 72 73 75 74 74 73 72 72 73 73 73 73 73 73 73 74 74 75 76 78 79 78 74 76 77 78 67 60 57 56 55
63 64 64 64 65 67 67 63 64 65 64 66 67 66 65 64 63 63 64 63 64 67 68 68 69 69 69 68 69 69 69 69 71 72 73 74 73 72 72 72 72 73 73 73 73 72 72 73 74 74 74 74 76 78 76 75 76 70 73 62 55 53 52
63 63 64 67 66 65 65 62 62 62 64 64 64 64 64 63 62 63 63 62 65 66 67 68 67 67 68 69 69 68 68 69 71 71 72 72 72 71 72 72 73 72 72 73 73 72 71 71 72 73 74 74 75 75 73 74 74 73 72 71 58 53 52
62 62 62 62 63 63 63 61 61 61 62 63 63 63 63 63 62 63 61 63 65 65 66 66 66 66 67 67 68 68 69 68 68 69 70 71 71 70 71 71 72 72 72 72 71 70 70 70 70 70 71 71 72 71 72 74 74 74 73 69 65 57 54
62 62 62 62 60 62 62 61 61 60 60 61 62 62 62 62 62 61 61 64 65 65 65 66 65 66 66 67 68 68 68 68 68 69 69 70 71 71 70 70 71 70 71 70 70 69 69 69 69 69 69 69 70 71 72 74 73 73 74 74 73 67 60
60 60 60 59 60 61 59 60 59 60 60 60 61 61 63 62 63 62 62 63 65 66 64 64 64 65 64 65 66 68 68 66 67 67 68 69 70 71 72 71 70 70 69 69 68 67 68 69 69 68 68 67 67 68 70 72 73 74 74 73 73 73 72
59 59 59 60 60 60 58 58 58 59 60 59 59 61 62 62 63 63 64 65 66 66 65 64 64 64 63 65 66 67 68 66 73 71 68 67 69 69 69 69 71 69 68 66 67 65 66 67 67 66 67 66 68 69 69 70 72 73 71 71 70 70 71
58 58 59 58 59 59 57 59 59 59 59 59 59 60 60 60 61 63 63 63 64 63 63 63 65 64 63 64 65 65 68 68 67 67 67 66 66 67 67 67 69 69 68 68 68 68 68 66 65 66 66 68 67 66 67 68 68 71 64 64 57 59 63
58 58 58 58 59 59 60 61 59 58 58 57 58 58 59 59 60 61 63 63 63 63 62 63 63 62 62 63 64 66 68 67 66 66 66 66 65 66 66 71 63 63 67 68 68 65 59 57 64 67 67 65 66 67 66 66 68 61 53 50 48 47 47
59 57 57 58 59 58 59 58 59 58 57 56 58 57 58 58 59 60 61 62 63 63 62 61 62 62 62 64 64 66 67 67 67 65 64 65 64 64 64 65 67 57 54 57 63 59 54 50 48 50 53 59 62 64 60 59 55 50 48 47 47 46 45
58 58 59 60 60 58 56 56 56 56 56 56 57 57 57 58 59 59 61 62 62 62 61 61 61 60 60 62 63 65 65 65 66 66 66 64 64 63 63 63 63 64 59 53 51 52 50 49 48 48 50 50 52 58 61 57 51 48 46 46 45 45 45

ECMWFFLT1_sfc_temp_114.txt.gz
Temp
71 70 70 70 71 72 76 80 80 81 81 81 81 81 81 81 80 79 79 78 78 76 76 77 77 77 77 77 77 77 77 76 76 77 77 78 78 78 78 78 78 78 78 77 78 77 78 79 79 79 79 79 79 78 78 78 78 80 78 78 78 78 77
70 69 69 70 70 70 72 72 76 81 80 81 82 81 82 81 79 79 78 78 78 77 76 77 77 77 78 77 77 77 77 76 77 79 78 78 79 78 79 78 79 78 78 78 79 78 79 79 79 79 79 79 79 79 79 78 78 78 78 77 78 77 77
68 68 69 69 70 70 72 73 73 75 78 81 82 82 82 80 80 79 79 79 78 78 77 78 78 78 78 77 77 77 77 77 77 78 77 78 78 80 80 79 79 79 79 80 79 80 80 80 79 79 80 79 80 79 79 78 78 79 78 77 78 79 77
67 68 70 70 71 71 73 73 73 74 76 77 78 81 82 80 81 81 80 80 79 78 77 78 78 78 78 77 77 77 77 77 78 79 79 79 79 79 79 78 79 80 79 80 81 82 84 81 80 79 82 79 79 79 79 79 79 78 78 77 77 77 77
68 69 69 70 71 71 73 72 73 72 74 76 76 76 77 80 82 82 81 81 81 79 79 79 80 80 79 79 79 79 78 78 77 78 79 79 79 79 79 80 79 80 80 81 81 81 81 80 80 80 80 79 79 79 79 79 79 78 78 78 78 77 77
67 67 68 69 70 71 71 72 73 73 73 74 75 76 76 78 81 81 81 81 81 81 81 80 80 79 79 79 80 80 78 78 78 78 79 79 79 79 79 80 80 80 81 81 81 81 81 81 81 81 81 80 80 80 80 79 79 79 78 78 78 78 78
67 68 68 68 69 69 71 72 72 72 73 74 74 75 76 77 76 77 78 79 79 77 77 77 77 79 79 80 79 78 78 78 78 78 79 79 79 79 79 80 80 80 81 80 81 82 81 81 81 81 81 81 80 81 80 79 79 79 78 78 77 77 78
67 67 68 69 69 69 70 71 72 72 73 74 73 74 74 75 76 75 76 76 77 77 76 75 74 74 76 79 80 79 79 79 79 79 79 80 79 79 79 79 79 81 80 81 81 81 82 81 82 81 81 81 80 80 80 79 79 80 79 78 77 77 79
67 67 68 69 68 69 69 70 71 72 72 72 72 73 74 74 74 74 74 74 74 75 74 75 74 75 74 74 76 77 78 80 80 79 79 81 81 80 82 81 80 81 81 81 82 81 81 82 82 81 81 81 80 79 79 79 79 79 79 78 78 77 78
67 67 68 68 69 68 69 70 71 71 71 72 72 72 72 73 73 73 73 73 73 74 74 75 75 75 75 74 74 75 76 77 79 81 81 81 82 82 82 83 82 81 81 82 83 82 81 81 82 81 80 80 79 78 79 79 79 79 79 79 79 78 78
68 68 68 68 68 68 67 68 68 69 70 71 71 72 72 71 72 72 72 73 73 73 74 75 75 74 74 74 74 74 73 76 79 80 81 82 82 83 83 84 84 82 82 82 82 83 82 80 81 80 79 81 80 79 78 79 79 79 79 80 80 79 79
66 67 67 67 67 67 67 67 68 69 69 70 70 71 72 72 73 73 73 74 74 73 74 74 75 74 74 74 73 72 73 73 74 75 77 80 83 84 84 84 84 84 83 83 83 83 83 82 81 81 80 80 81 80 79 78 79 79 79 80 80 79 79
68 68 67 67 65 65 68 67 67 68 69 69 70 70 70 71 72 73 72 73 73 74 74 73 74 74 74 74 74 73 73 73 73 73 74 74 75 79 81 81 83 85 85 85 85 83 83 83 82 81 81 80 81 81 80 79 79 78 79 79 80 79 79
69 69 68 67 66 65 66 66 68 69 68 69 69 70 70 71 71 72 72 72 73 73 74 74 73 73 73 73 73 72 73 73 73 73 73 74 75 75 76 77 77 79 79 82 84 85 84 84 83 83 82 81 81 81 81 79 78 78 78 79 79 79 79
67 68 68 68 67 66 67 67 67 67 68 69 70 70 70 70 70 71 71 72 72 73 73 74 73 73 73 72 71 72 72 73 73 73 73 74 74 74 75 76 76 76 77 78 81 85 86 85 85 83 82 82 81 81 81 80 80 79 79 78 78 79 79
67 67 67 67 68 68 68 68 69 69 69 69 69 69 70 70 70 70 70 71 72 72 73 73 73 73 73 73 73 73 73 73 73 73 74 74 73 73 73 74 77 78 77 77 78 78 79 80 82 84 83 82 81 81 82 81 82 81 77 78 80 79 81
65 66 67 67 67 68 68 68 69 69 68 67 68 70 70 69 70 71 71 71 71 70 72 72 71 72 72 72 73 74 74 74 73 73 73 73 73 73 73 74 76 76 75 75 74 74 76 78 80 81 83 83 83 82 82 83 84 77 71 72 75 81 79
63 64 65 66 67 67 68 68 68 69 69 68 70 71 70 69 70 70 70 70 70 70 71 71 71 70 71 72 72 72 72 72 73 73 73 73 74 74 74 75 75 74 74 74 75 74 76 78 78 77 79 83 83 83 83 83 80 72 69 70 70 76 81
63 64 64 64 65 65 66 67 68 68 69 71 71 71 72 72 71 70 71 70 71 71 71 71 70 70 70 71 71 71 71 71 72 72 72 73 73 73 74 74 74 74 75 74 74 75 74 75 76 77 76 79 79 82 83 83 76 70 69 69 69 69 77
63 63 63 63 63 64 63 65 65 68 69 68 70 73 74 74 72 72 72 73 72 71 70 70 70 70 70 70 70 70 71 71 71 71 72 73 73 73 73 73 72 73 74 74 73 73 74 76 76 75 74 76 76 78 81 82 78 69 67 67 67 68 70
62 62 61 61 61 63 62 62 64 65 66 68 70 71 72 71 72 71 71 72 71 71 70 70 69 69 69 69 70 70 70 70 70 71 71 72 73 72 72 72 71 72 73 73 73 73 73 74 75 75 75 77 77 76 79 84 75 68 65 65 65 66 68
63 64 62 61 61 61 62 63 64 65 65 68 68 69 69 69 70 70 69 69 70 70 70 69 68 69 69 69 70 70 70 71 71 70 71 71 71 72 72 71 71 72 73 73 73 74 74 74 75 76 76 76 76 77 78 82 72 67 64 63 63 65 72
65 65 64 63 64 63 63 64 64 65 66 65 66 66 66 68 68 68 68 68 68 67 67 67 67 68 68 69 69 70 70 70 71 71 71 70 70 70 71 71 71 72 73 72 73 73 73 74 75 74 75 76 76 76 76 79 68 63 61 61 62 64 72
66 65 65 65 65 65 64 64 65 66 65 64 64 64 65 66 66 65 65 66 67 66 66 66 66 67 67 67 68 69 70 70 71 71 71 70 70 70 70 71 71 72 73 72 72 72 73 74 74 75 75 75 76 78 78 79 69 61 62 59 59 66 73
65 66 65 65 64 63 64 64 65 65 64 64 64 64 64 64 64 64 64 64 64 65 65 65 65 66 66 66 66 68 69 70 70 71 71 70 71 71 71 71 71 72 72 72 72 72 73 73 73 74 75 77 78 79 78 75 73 62 61 61 57 62 70
63 64 64 65 64 63 63 63 64 64 63 62 62 65 64 63 63 65 64 63 63 63 63 64 65 65 66 66 66 67 68 68 69 69 70 70 70 71 71 71 71 71 72 72 72 72 72 73 73 73 75 77 77 79 78 75 75 75 62 58 55 59 71
63 64 63 64 64 66 62 62 61 61 62 61 62 64 64 63 63 61 63 62 61 62 63 64 64 65 65 66 66 67 67 68 68 69 71 72 70 71 71 69 69 69 70 71 71 71 72 72 73 74 74 75 76 77 76 76 75 75 65 60 57 55 64
63 63 64 65 66 63 61 62 61 61 62 62 63 63 62 61 61 61 60 60 61 61 63 64 64 64 64 65 66 67 67 66 69 70 72 71 71 69 69 69 69 70 70 70 70 71 71 71 72 72 73 74 75 76 74 76 76 75 69 62 58 55 55
59 59 59 60 61 63 63 59 59 60 59 61 61 60 60 60 60 60 59 59 60 62 63 64 64 63 63 64 65 66 67 66 68 69 69 70 70 69 69 69 69 69 70 70 69 69 70 70 70 70 69 71 73 74 74 73 74 71 72 67 61 56 53
59 59 60 61 62 61 61 58 58 58 59 59 59 59 58 59 58 60 59 58 60 61 63 63 62 63 63 64 64 64 65 67 67 67 68 69 69 68 68 68 69 68 69 68 68 67 67 68 68 68 68 68 69 70 70 72 73 72 71 70 64 58 53
58 58 58 59 60 61 59 58 57 58 59 58 58 59 59 59 58 60 58 58 61 61 61 62 62 62 62 62 62 63 64 65 65 65 66 66 66 67 68 68 68 68 67 67 66 66 66 66 68 67 67 67 68 67 68 69 70 71 73 70 66 61 58
57 57 58 58 57 59 57 57 56 57 57 58 58 58 59 58 58 57 57 59 60 61 60 61 61 62 62 62 62 62 63 64 65 65 65 65 65 66 66 67 67 68 67 66 66 64 65 65 66 66 65 65 67 67 68 69 69 70 72 73 72 68 61
56 56 56 56 57 58 56 55 56 57 57 56 56 57 58 58 58 58 58 59 60 61 60 60 60 61 61 60 61 62 62 62 63 65 65 64 64 65 66 65 65 66 66 66 64 63 65 65 65 64 63 64 64 65 66 68 69 70 71 71 69 68 67
54 55 55 56 56 56 54 53 54 55 55 55 54 56 57 57 57 58 58 59 60 60 59 59 60 60 59 60 61 61 62 62 68 68 64 63 64 63 64 64 65 64 63 64 64 63 64 63 63 63 63 62 63 64 65 66 67 69 69 68 66 64 64
55 55 54 55 55 56 54 54 55 54 55 54 54 55 55 55 56 57 57 58 58 58 58 58 59 59 58 59 59 60 63 63 63 62 63 63 62 62 62 63 64 64 63 65 65 65 65 64 64 64 63 63 63 62 63 65 65 67 60 58 53 55 59
54 54 54 55 56 54 55 56 54 54 54 53 53 54 55 54 55 56 58 58 58 58 57 57 57 57 57 59 59 60 62 62 61 61 62 63 62 64 62 67 60 59 61 63 66 61 54 53 61 63 62 61 62 63 62 63 66 59 50 46 45 45 45
54 54 54 54 53 53 54 54 56 54 54 53 54 54 54 54 54 55 56 57 57 57 56 55 56 57 56 58 58 60 63 61 60 60 60 61 61 62 60 61 61 53 53 55 57 53 48 46 47 49 51 55 58 61 59 57 53 47 44 43 44 43 43
56 55 55 53 54 54 54 53 53 53 53 53 54 52 53 53 54 53 56 57 56 56 55 55 55 54 55 56 58 60 61 60 61 61 61 61 61 61 59 59 58 60 55 51 52 51 48 47 48 49 50 51 52 57 59 57 52 46 44 44 43 44 43

ECMWFFLT1_sfc_temp_117.txt.gz
Temp
69 68 68 69 70 73 74 75 76 78 78 78 78 78 78 78 77 76 76 75 75 74 74 74 75 74 74 74 74 74 74 74 75 74 74 75 76 75 75 75 75 75 75 75 75 75 76 77 77 77 77 77 77 76 76 76 76 78 76 76 76 76 76
68 68 68 70 70 71 71 72 73 76 78 78 78 78 79 78 77 76 76 75 76 75 75 75 75 75 75 75 75 74 74 74 75 76 76 76 77 75 76 76 76 75 75 76 75 76 76 76 77 77 77 77 77 76 76 76 76 76 76 76 76 75 75
68 68 68 69 70 69 71 71 71 74 77 78 79 79 78 77 77 77 76 76 75 76 76 76 76 75 75 75 74 74 75 74 74 75 75 75 75 77 77 77 76 76 77 77 77 77 77 77 76 77 77 77 77 77 77 76 77 77 76 76 77 76 75
68 68 69 70 70 70 70 71 71 71 77 78 79 79 79 78 78 78 78 77 76 76 75 76 76 76 76 75 75 75 75 74 75 75 76 76 76 76 76 76 76 76 76 76 78 79 80 78 77 76 79 77 77 77 77 77 77 77 77 76 76 76 75
68 69 69 69 69 69 70 71 71 70 71 77 79 79 79 79 79 79 78 79 78 77 77 77 78 78 77 77 77 77 76 75 75 75 76 76 76 76 77 77 76 77 77 78 77 78 77 77 77 77 77 76 77 77 77 77 77 77 77 76 76 76 76
67 68 68 69 69 70 71 71 71 72 72 73 75 77 78 78 79 79 79 78 78 79 78 77 77 77 76 77 77 77 75 75 75 75 76 76 76 76 76 77 77 77 78 78 78 78 78 78 78 78 77 77 78 78 77 77 77 77 77 76 76 76 77
66 67 67 69 69 70 71 71 71 72 72 72 72 74 77 78 78 78 78 77 77 76 76 76 77 77 77 77 77 77 75 76 75 75 76 76 76 77 77 77 78 78 79 78 78 78 78 78 78 78 78 78 78 78 77 77 77 77 77 76 76 75 75
67 66 67 68 69 70 70 71 71 72 72 72 72 72 75 77 77 76 77 77 77 76 76 76 75 75 76 76 77 77 77 77 76 76 75 76 76 76 77 77 77 78 77 78 78 78 79 78 79 79 79 78 78 77 78 77 77 77 77 76 76 76 77
66 66 67 68 69 70 70 71 71 72 72 71 71 71 72 74 75 75 76 75 76 76 74 76 75 76 75 75 76 77 77 77 77 76 76 77 77 77 78 78 77 77 77 78 79 78 79 79 79 78 78 78 78 77 77 77 77 77 77 76 76 76 76
65 66 66 67 68 68 69 70 70 71 71 71 71 71 71 71 73 74 74 74 74 74 73 74 74 74 74 74 74 75 76 76 77 78 77 78 78 78 78 79 78 78 78 79 79 79 78 79 79 79 77 78 77 77 77 77 77 77 77 77 77 76 76
64 65 66 66 66 67 68 68 68 68 69 70 70 71 71 71 71 72 72 73 73 73 74 74 74 74 73 73 73 74 74 76 77 78 78 78 79 79 79 80 80 79 79 79 79 80 78 77 78 78 77 78 78 77 77 77 77 77 77 77 77 77 77
63 64 64 65 66 67 66 67 68 68 68 69 70 70 71 71 72 72 72 72 73 73 73 73 73 73 73 73 72 71 71 72 73 75 77 78 79 80 81 81 80 80 79 79 79 79 80 79 78 79 78 78 78 78 78 77 77 77 77 78 78 77 77
64 63 63 64 64 65 66 66 67 67 68 68 69 69 70 71 71 72 72 71 72 73 72 72 73 72 72 72 72 71 71 71 72 72 73 75 75 75 76 79 81 81 81 80 80 80 80 80 79 78 78 78 79 79 78 77 77 77 77 77 77 77 77
65 64 64 64 64 64 64 65 66 67 67 68 68 69 69 71 71 71 71 71 71 72 72 72 72 73 73 72 72 71 71 72 72 72 72 72 72 73 74 75 76 77 79 80 80 81 81 81 80 79 79 79 79 79 79 78 77 77 76 77 77 77 77
65 64 64 63 63 63 64 63 64 65 67 68 69 69 69 70 70 71 71 71 71 72 72 73 72 72 72 72 71 71 71 72 72 72 73 74 72 73 74 74 73 73 73 75 79 82 82 82 82 81 79 79 79 79 79 79 78 78 78 77 76 77 77
65 65 64 63 63 64 63 64 64 65 66 66 68 68 69 69 69 69 69 70 70 70 71 72 71 71 72 72 71 72 72 72 73 73 73 73 73 73 73 73 74 75 74 74 74 76 78 80 80 81 80 79 79 78 79 79 79 79 76 77 79 77 78
65 65 65 64 63 63 64 64 65 65 65 66 67 68 68 68 68 69 69 69 70 70 70 71 70 70 71 71 72 72 73 72 72 72 72 72 72 72 72 72 73 74 73 73 73 73 73 76 78 80 81 81 80 79 79 80 81 75 70 70 72 79 77
63 64 65 66 66 65 65 65 66 66 66 66 67 68 67 67 68 68 68 68 69 69 70 70 70 69 70 70 71 71 71 71 72 72 72 72 72 72 72 72 73 73 73 73 73 72 73 73 75 76 78 81 80 80 81 80 78 71 68 69 68 73 79
62 63 63 64 65 64 65 66 67 67 69 69 69 68 68 69 68 67 67 67 68 69 69 69 69 69 69 69 70 70 70 71 71 72 72 72 73 73 73 73 72 72 72 72 73 73 71 71 73 73 74 77 77 79 81 80 75 69 68 67 67 67 73
62 63 63 64 64 63 63 64 66 68 69 69 70 71 70 70 68 69 70 69 69 68 68 67 67 67 68 69 69 69 70 70 71 71 71 71 71 72 73 73 72 72 73 73 73 72 72 72 72 72 72 72 73 74 76 78 77 69 66 66 65 66 68
60 61 61 61 61 63 63 63 63 64 65 67 68 69 69 68 69 69 68 70 69 69 68 68 67 67 67 67 68 68 69 70 70 70 70 70 71 71 71 71 71 72 72 73 72 72 72 72 72 72 73 73 74 73 75 79 74 68 65 64 64 65 67
61 61 60 60 59 59 60 61 61 61 62 65 65 65 66 66 67 67 67 68 67 68 68 68 68 69 68 67 67 68 68 69 69 69 70 70 70 71 70 70 70 70 72 72 72 73 73 73 73 73 72 73 73 74 74 77 68 65 64 62 62 63 70
62 61 61 61 61 60 60 61 61 62 63 62 63 63 63 64 65 65 66 66 66 66 66 66 66 67 68 69 68 69 68 68 69 69 69 69 69 70 70 70 70 70 72 71 72 71 71 71 72 73 73 73 74 73 72 75 69 62 62 60 60 62 70
62 62 62 62 61 62 61 61 62 63 62 62 62 61 62 63 63 63 62 63 64 64 64 64 64 65 66 66 68 68 69 69 69 69 69 68 68 69 70 70 70 70 72 71 71 71 72 72 72 72 73 73 73 74 74 75 72 61 60 60 58 63 70
62 62 62 62 62 61 61 61 62 62 62 61 61 60 61 62 63 61 60 61 62 62 62 62 63 63 64 64 66 67 68 69 69 69 69 68 67 69 69 69 69 70 70 71 71 71 72 72 72 72 73 74 74 77 75 74 73 63 59 59 60 62 68
59 60 60 61 61 61 61 62 62 61 59 59 59 61 61 61 61 62 61 60 60 60 61 61 62 62 63 64 65 66 67 67 68 68 68 67 67 68 69 69 69 68 69 70 70 71 71 72 71 71 72 74 75 76 75 74 74 73 63 58 57 59 68
60 61 60 61 61 63 60 59 59 59 59 57 58 60 61 61 60 59 60 59 58 58 59 60 61 62 63 63 64 65 66 67 66 67 68 68 67 68 68 67 67 68 69 70 70 70 70 70 70 70 70 71 73 74 73 74 74 72 63 60 58 56 60
60 60 61 63 64 61 59 60 59 59 59 58 59 60 59 59 59 58 57 57 57 57 59 60 60 61 61 62 63 64 65 65 66 67 68 68 68 66 66 66 67 68 68 68 68 68 68 68 69 69 69 70 70 71 70 73 74 72 67 62 59 58 54
58 58 58 58 59 61 61 58 58 57 56 58 58 58 58 59 58 57 56 55 56 58 59 60 60 60 60 62 62 63 63 64 65 65 66 67 67 65 65 66 66 66 68 66 66 66 66 66 67 67 67 67 69 70 70 70 72 69 70 65 59 56 56
57 57 58 59 59 59 59 56 56 56 56 56 57 57 57 57 57 57 56 54 56 58 59 59 59 59 60 61 61 61 62 63 63 64 63 65 64 64 64 65 66 66 66 64 64 63 64 64 65 65 65 65 66 67 67 69 69 70 69 68 57 54 54
57 57 57 57 58 59 58 56 55 55 55 55 55 55 55 56 56 57 55 55 57 57 57 58 59 59 59 58 59 60 61 61 61 62 63 63 63 63 64 63 64 64 63 63 63 62 62 63 64 63 63 63 64 64 65 67 67 68 70 68 64 58 55
55 56 56 56 56 57 56 55 55 54 53 53 53 54 55 54 55 54 54 55 57 57 56 57 58 59 58 58 58 58 59 60 61 62 63 63 63 64 64 64 64 64 63 62 61 61 62 63 64 63 63 62 62 63 64 65 65 66 68 70 68 64 59
54 55 55 55 56 56 54 54 53 53 54 52 52 53 54 53 54 54 54 55 56 56 56 57 57 57 57 56 57 58 58 58 60 61 62 61 62 62 63 63 62 63 64 63 60 61 62 63 64 63 62 62 61 62 63 64 64 65 65 64 62 62 63
52 53 54 55 55 54 53 53 52 53 53 53 51 53 53 53 53 53 54 55 56 55 55 56 57 56 54 55 56 57 58 58 64 63 59 60 60 60 61 61 62 62 62 62 61 60 60 60 61 61 61 60 61 61 62 63 63 64 61 60 59 59 60
53 54 53 53 53 54 53 53 53 52 53 51 51 52 52 52 52 53 53 53 53 53 54 55 56 56 54 55 55 56 59 59 59 58 58 58 59 59 59 59 60 62 61 59 60 62 62 60 60 62 59 59 58 59 59 61 61 63 53 54 50 52 54
52 52 52 52 53 53 54 54 53 53 52 50 51 52 52 51 52 52 54 53 53 53 53 54 54 54 53 54 55 56 58 59 58 58 59 58 57 58 60 65 59 56 59 60 63 57 54 56 61 60 58 57 58 59 59 59 63 52 45 43 42 43 43
53 52 51 51 52 51 52 52 54 53 52 51 52 52 52 51 51 51 52 52 52 52 52 51 53 53 52 54 54 57 60 58 57 58 57 57 57 57 57 59 60 53 52 55 56 53 47 45 46 48 53 58 57 59 57 56 50 44 43 42 42 42 41
55 54 52 52 52 52 52 52 52 52 52 51 52 51 50 51 50 50 52 52 52 52 51 51 51 50 51 52 55 59 59 57 57 58 58 56 56 57 56 56 55 58 53 51 51 49 46 46 46 46 46 48 51 56 56 53 48 43 42 42 42 42 42

ECMWFFLT1_sfc_temp_123.txt.gz
Temp
76 76 77 79 81 82 82 83 83 83 83 83 83 84 85 84 83 83 83 81 81 81 81 81 81 82 81 82 83 83 84 84 84 84 84 84 85 85 84 86 85 84 86 86 86 85 86 86 86 86 86 86 86 86 86 86 86 87 86 86 86 86 86
75 76 76 78 80 81 82 83 83 84 84 84 84 83 85 84 83 83 82 82 82 81 81 81 81 82 82 82 83 83 83 83 84 84 84 84 84 84 85 85 85 84 85 86 86 86 86 87 86 86 86 86 87 86 87 86 86 86 87 86 86 86 86
74 76 77 77 79 81 82 83 83 84 84 85 85 84 84 82 83 83 82 82 81 82 82 82 81 82 83 83 82 83 84 84 84 84 84 85 85 87 86 85 86 86 87 87 86 87 87 87 86 86 87 87 88 86 86 86 86 87 87 86 86 87 86
71 74 76 77 79 80 82 83 83 84 85 86 85 86 85 83 84 83 83 83 82 82 81 82 83 83 83 82 82 83 83 84 85 86 87 87 86 87 85 85 85 87 86 86 88 88 89 87 87 86 85 86 86 87 87 87 88 87 87 86 86 87 86
70 73 75 75 77 78 79 81 82 83 84 86 86 85 85 85 85 85 85 85 85 83 84 85 86 85 84 84 85 85 85 85 85 86 87 87 87 86 86 87 87 87 87 88 87 86 85 86 87 87 86 86 87 87 86 87 87 87 86 86 86 87 88
69 69 71 73 75 77 79 81 82 82 83 84 85 85 85 85 86 86 86 84 85 86 85 84 85 84 83 85 85 85 85 85 84 85 86 86 86 87 87 87 88 87 88 87 88 88 87 87 87 87 88 89 89 89 89 88 88 88 87 86 86 87 89
69 69 70 72 73 75 77 79 80 81 83 84 85 85 85 85 84 84 86 85 85 83 84 84 85 85 84 85 84 84 83 85 85 86 87 87 87 87 87 88 87 88 89 88 87 88 88 87 87 87 87 88 88 89 87 86 87 87 87 86 85 86 86
70 69 70 71 72 75 76 76 77 80 82 83 83 82 83 84 85 84 85 86 85 83 82 82 83 84 83 84 85 85 85 86 86 86 87 87 87 87 88 88 87 88 87 88 88 88 89 88 89 88 88 88 87 87 88 87 86 89 88 86 86 86 89
72 71 71 71 71 73 75 76 76 76 78 80 81 81 83 83 84 85 85 84 84 82 82 84 83 84 83 83 84 84 86 86 86 86 86 88 88 89 90 89 89 88 87 89 90 88 89 89 90 87 87 87 87 86 87 86 87 88 87 87 86 86 88
71 72 72 72 71 71 74 75 75 75 75 77 78 79 81 81 82 85 86 84 84 83 83 84 83 83 82 82 83 85 85 85 86 87 88 88 88 88 89 90 90 89 88 89 91 90 88 89 89 88 86 86 86 86 86 86 87 87 88 87 87 86 86
69 70 72 72 71 71 72 73 74 74 76 77 77 79 80 80 80 82 82 82 81 82 83 83 83 82 82 82 82 83 85 86 87 86 87 88 89 89 90 90 91 90 89 90 90 90 90 88 88 87 86 88 87 87 86 87 87 87 88 88 88 88 88
67 67 67 70 71 71 70 71 73 73 74 75 77 78 78 78 78 80 81 81 82 82 83 82 82 82 82 82 81 81 82 85 86 86 87 87 88 88 89 90 90 90 90 90 89 89 90 89 89 89 87 87 88 88 87 87 87 86 87 89 89 88 88
65 65 65 64 68 71 71 71 71 72 73 75 75 76 77 77 77 79 80 80 81 82 83 82 81 81 81 81 81 81 81 83 84 85 86 85 86 88 88 89 90 90 90 90 90 90 90 91 89 89 89 88 89 89 88 87 88 86 86 87 88 88 87
66 67 67 66 67 68 68 70 71 71 72 72 73 74 74 75 77 77 78 78 79 80 80 81 81 81 81 81 81 81 81 81 82 81 82 83 83 84 86 87 88 88 89 89 88 89 90 91 91 90 90 89 89 89 88 87 87 87 87 87 88 88 88
66 65 66 66 65 67 68 68 68 70 71 71 71 70 72 73 74 75 76 77 77 78 78 79 80 79 80 80 80 80 81 81 81 81 81 81 81 82 83 84 85 86 86 87 88 90 90 90 91 90 89 89 88 88 89 89 88 88 88 87 87 88 88
64 65 65 64 64 64 66 66 66 66 67 68 68 69 70 70 71 73 73 73 74 75 77 78 78 78 79 79 78 79 79 79 80 80 80 80 80 80 81 83 85 86 86 86 86 87 86 87 88 89 89 88 88 88 89 89 89 85 79 80 87 88 89
65 64 64 63 63 63 64 64 64 64 64 65 66 67 67 68 68 70 71 72 73 74 75 76 74 74 75 76 78 79 79 78 79 80 79 79 79 80 80 81 83 83 83 84 84 84 84 85 86 88 89 89 89 89 90 90 91 81 71 70 71 83 86
65 64 64 63 63 63 63 63 63 63 63 64 65 65 65 66 66 67 67 69 70 70 72 71 71 72 73 74 76 77 78 78 78 78 78 78 79 79 80 81 81 81 82 84 84 83 86 86 85 85 87 88 88 89 90 90 84 74 70 68 67 73 84
65 65 65 65 63 62 62 62 63 64 64 64 64 64 65 65 65 65 66 66 68 69 68 68 69 70 70 71 72 74 75 76 77 77 77 78 79 79 79 79 79 80 81 81 83 85 83 83 84 84 85 86 85 87 89 89 77 69 69 67 66 65 74
65 66 67 67 66 64 63 63 63 64 64 64 64 64 64 65 64 64 65 66 67 66 67 67 67 66 67 68 69 71 73 74 75 74 74 75 76 77 78 78 77 78 79 80 80 81 82 84 83 83 83 84 84 84 87 88 72 66 65 66 64 64 70
65 65 65 65 65 65 65 64 64 65 65 64 64 63 63 63 64 64 64 65 65 65 65 66 66 66 66 67 68 70 71 71 71 71 72 74 75 75 75 74 75 75 76 77 78 78 79 81 81 81 82 84 85 85 87 84 65 63 62 61 62 62 69
67 66 64 65 66 65 65 65 65 65 64 66 65 65 64 63 64 63 63 64 64 64 65 65 65 65 66 66 67 68 68 69 69 70 72 72 73 73 73 74 76 75 74 73 74 78 80 81 81 81 81 81 82 84 85 78 61 61 59 60 62 62 80
70 68 67 66 66 65 65 66 67 66 66 66 66 65 64 64 64 64 64 64 63 64 64 64 64 64 64 65 66 67 67 68 68 69 70 70 70 70 70 71 71 72 73 73 74 75 75 77 78 78 80 80 80 80 81 79 65 59 58 59 60 70 83
71 70 70 69 68 68 67 67 68 68 67 66 65 65 66 66 65 64 64 64 65 65 64 65 65 65 64 64 65 65 66 67 67 67 67 68 68 69 70 71 71 71 72 72 72 72 74 74 74 75 76 77 77 78 76 75 66 57 57 57 58 69 80
71 71 71 71 70 69 68 68 68 68 67 66 65 65 67 67 66 65 64 64 64 64 63 63 64 65 64 65 66 66 67 69 69 69 69 69 69 69 70 70 70 70 71 71 71 71 73 73 73 73 74 75 76 75 75 75 68 57 56 56 57 68 79
68 69 69 70 71 70 69 69 69 69 68 67 66 68 67 66 65 64 63 64 64 63 63 63 64 65 66 66 68 69 70 71 71 70 70 70 70 70 70 71 71 71 71 71 72 71 71 71 71 70 69 71 72 74 75 72 70 63 55 54 56 58 74
69 70 69 70 69 68 69 68 68 68 68 67 67 70 70 68 66 63 63 63 63 63 63 65 66 66 67 67 68 69 70 72 72 72 73 72 71 71 71 71 71 72 72 71 72 71 72 72 71 70 69 70 70 70 71 73 70 64 56 54 54 55 65
69 69 70 69 68 68 68 69 67 67 68 68 69 70 69 67 64 63 63 62 61 62 65 67 67 68 68 68 68 69 70 71 72 73 74 73 73 72 71 72 73 73 73 73 72 71 70 70 71 70 69 69 69 69 69 72 70 69 61 55 53 53 56
67 67 67 67 67 69 69 67 67 67 66 69 69 69 68 67 63 63 62 61 61 63 65 66 67 68 68 67 67 67 68 69 70 71 72 72 73 72 72 73 73 73 73 73 72 72 71 71 72 72 70 70 69 69 69 70 70 65 65 58 53 52 53
67 67 68 70 69 68 68 65 65 65 66 67 67 67 67 66 63 62 61 60 63 64 65 66 67 67 67 67 67 67 68 68 70 70 70 71 71 72 72 72 73 72 72 72 72 71 70 70 71 71 71 72 72 71 70 70 70 68 65 63 56 53 51
66 67 67 66 67 67 67 66 64 64 64 65 64 65 65 66 63 62 60 61 63 63 64 64 65 66 66 66 67 67 68 69 69 69 69 70 71 71 72 72 72 71 71 71 71 71 70 69 70 70 69 69 69 69 70 71 72 70 68 65 63 55 53
65 67 67 66 65 65 65 65 64 63 62 62 64 64 64 64 64 61 60 62 63 64 64 64 64 64 64 66 67 67 69 70 70 68 68 69 70 70 71 71 72 72 72 71 71 70 69 68 69 69 69 69 69 70 71 70 71 70 70 69 68 65 58
64 65 65 64 64 64 64 64 63 62 62 61 63 64 64 63 63 62 62 62 63 64 64 64 63 63 63 64 66 67 68 68 69 69 68 70 71 72 72 72 73 72 71 72 71 69 69 69 68 68 68 68 68 69 70 71 71 71 70 69 70 70 68
63 64 64 64 64 64 64 64 63 62 61 60 61 62 63 62 62 62 63 64 64 64 63 63 63 64 64 65 66 67 67 67 66 67 69 69 70 71 72 72 72 72 70 71 70 69 69 69 68 67 68 67 70 70 71 71 71 69 67 66 65 67 69
63 64 63 63 63 64 63 63 63 62 61 60 61 61 61 61 62 62 62 62 63 62 62 62 62 63 64 65 65 65 66 67 67 67 68 68 69 69 68 68 70 69 70 70 69 69 70 70 68 68 69 70 68 68 69 70 68 65 55 56 50 54 61
63 63 63 64 64 64 63 63 62 61 61 60 61 61 61 60 61 61 63 62 62 63 63 62 63 63 64 65 65 66 67 67 68 67 67 69 68 69 69 62 54 60 68 68 61 52 47 52 67 66 68 68 68 68 67 68 66 51 44 42 42 42 43
62 62 62 63 62 62 62 62 62 61 60 60 61 61 60 60 61 61 61 61 62 62 63 63 63 63 64 65 64 64 65 66 66 66 66 67 67 67 67 70 64 45 45 53 54 50 43 42 42 45 49 60 69 62 51 53 47 43 42 42 42 41 41
64 64 63 63 63 62 62 61 61 61 60 60 61 61 61 61 61 60 62 61 61 62 62 63 63 62 62 63 63 63 63 63 64 65 65 65 66 66 67 67 67 68 52 46 49 46 43 44 43 43 45 46 50 62 66 53 46 42 42 42 41 41 41

ECMWFFLT1_sfc_temp_129.txt.gz
Temp
89 89 89 90 90 91 91 92 92 93 93 93 93 95 95 96 93 93 92 89 88 87 88 88 88 89 88 89 89 89 90 90 90 90 90 90 91 89 90 91 90 89 91 91 91 91 92 92 92 93 92 92 91 91 90 91 90 92 91 91 91 91 91
86 88 88 89 89 90 91 92 92 93 93 93 93 93 94 95 93 93 91 90 89 88 88 88 88 88 89 89 90 89 89 90 90 90 91 89 90 90 92 91 91 89 90 91 91 91 91 92 92 91 91 91 91 91 92 91 91 91 92 90 91 90 91
82 85 88 89 89 90 91 94 93 94 93 95 95 94 94 92 93 92 92 91 89 89 90 90 88 89 89 89 89 89 90 91 90 91 91 89 91 94 92 91 92 93 93 93 88 91 93 93 91 91 91 91 93 91 91 91 91 91 91 91 91 91 89
80 82 87 89 89 90 92 93 93 94 95 96 95 96 95 93 95 94 94 93 91 90 89 91 91 91 90 89 89 89 89 90 91 93 94 94 91 94 92 92 92 93 93 93 95 94 96 93 92 91 90 91 91 92 91 91 92 92 92 90 91 91 90
79 83 86 87 89 90 90 91 92 92 94 97 96 95 96 96 96 96 95 95 95 92 93 93 95 93 92 91 93 93 91 91 91 93 94 94 93 93 93 94 94 94 93 95 94 92 92 92 93 91 91 90 91 91 91 91 92 91 91 90 90 91 92
79 80 82 83 87 90 90 91 92 92 92 95 95 95 96 96 97 97 97 95 95 96 95 93 94 92 91 93 93 94 92 91 91 91 92 93 93 94 93 94 95 94 95 94 95 95 93 93 93 93 93 94 94 94 93 92 93 93 91 90 90 92 93
80 80 80 82 84 87 90 90 91 92 94 95 92 93 96 96 95 95 97 96 96 94 95 95 95 94 92 93 92 92 91 93 92 93 94 95 94 94 94 94 94 95 96 95 94 94 94 93 93 93 93 95 93 95 92 92 92 93 91 90 89 90 90
80 81 81 81 84 86 88 89 90 92 93 93 88 81 91 95 96 95 96 97 96 93 92 92 93 93 92 93 93 93 93 93 94 93 93 95 94 94 95 95 94 94 94 95 94 95 95 94 95 94 94 95 94 93 94 92 90 94 93 90 89 90 95
81 80 81 83 83 84 86 88 89 91 90 89 83 77 90 93 95 95 96 95 94 92 92 95 94 94 92 92 92 92 94 94 94 93 93 94 95 96 97 97 96 95 95 96 96 95 95 95 96 93 93 94 93 92 93 91 92 93 93 92 90 90 92
77 77 80 79 78 78 80 85 87 89 83 87 85 82 91 91 92 95 96 95 95 94 93 95 93 93 92 91 92 95 94 93 94 96 95 95 96 96 97 98 97 96 96 97 98 97 95 95 95 93 91 92 91 91 91 91 92 93 94 92 91 91 90
75 75 77 77 76 76 74 79 83 85 88 88 88 89 90 90 90 92 92 92 91 91 92 92 92 91 91 91 91 93 93 94 95 95 95 95 96 97 98 98 99 97 97 98 98 98 97 94 95 92 91 94 92 91 91 91 92 92 94 94 94 92 92
73 72 74 76 75 75 74 76 78 82 85 87 88 88 88 88 89 91 91 91 92 91 92 91 91 91 90 91 90 90 92 94 94 95 95 95 97 97 98 98 98 98 98 98 97 97 99 96 96 95 92 93 93 93 91 91 92 91 92 94 95 93 93
74 73 73 74 75 74 75 75 76 79 81 84 86 87 88 88 88 91 90 90 91 91 92 90 90 89 89 89 90 89 90 93 94 95 96 95 96 97 97 98 98 98 98 98 97 97 98 98 95 95 95 93 94 95 92 92 93 91 91 92 93 93 93
71 71 73 74 76 76 75 75 75 76 78 81 82 85 86 87 88 88 88 88 88 89 89 89 88 87 88 88 88 88 89 90 92 93 94 95 93 95 98 98 98 97 97 96 96 97 97 98 98 97 97 95 95 95 94 92 92 91 91 92 93 94 93
75 75 74 75 75 76 76 75 75 75 75 77 79 82 84 85 85 86 87 86 86 89 88 87 86 86 87 87 87 88 89 89 91 91 92 92 92 94 95 96 96 96 96 96 96 99 98 98 99 97 96 96 94 93 96 96 93 93 90 91 91 94 94
74 76 76 75 76 76 76 76 76 75 75 75 76 78 80 83 83 84 84 84 85 85 86 86 85 85 85 86 87 87 87 88 88 89 90 90 90 90 91 94 95 97 96 95 96 95 95 95 96 98 97 95 95 95 97 97 97 92 88 87 89 90 94
76 76 75 74 74 76 76 76 76 78 76 76 75 74 74 74 77 80 82 81 82 84 85 86 85 83 86 85 86 86 87 87 87 87 87 87 88 89 89 90 92 93 92 93 93 92 91 93 95 96 98 97 96 96 97 98 99 83 76 79 82 91 93
74 73 73 72 70 70 70 71 72 73 75 75 75 74 72 72 73 74 74 76 76 79 83 82 80 81 82 84 84 85 85 86 86 86 85 86 86 87 87 89 90 89 90 92 93 91 93 93 92 92 94 96 96 97 97 94 69 69 73 76 77 83 90
72 72 71 69 67 66 66 67 68 68 70 72 73 73 73 73 72 71 70 70 71 74 77 78 77 77 74 74 80 83 85 85 84 84 84 85 86 86 86 86 86 88 89 88 91 93 90 89 92 91 92 93 93 96 95 82 67 65 67 67 68 69 79
71 71 71 71 69 67 66 67 67 67 66 66 67 70 71 72 70 70 71 71 72 71 71 73 76 75 74 76 80 79 73 73 76 82 80 77 76 79 82 85 85 86 87 87 87 84 86 91 89 88 86 89 91 91 82 79 66 63 63 66 65 67 74
70 70 69 68 68 68 66 65 65 65 65 65 65 66 67 68 69 68 68 69 69 70 71 73 72 72 73 74 76 77 77 78 77 75 74 73 73 75 77 74 74 76 78 77 75 76 76 76 71 74 75 74 75 80 81 76 61 61 62 62 64 64 73
74 72 70 69 68 68 68 67 66 65 64 65 65 65 65 65 67 67 66 67 67 67 68 69 68 69 71 72 74 74 75 76 76 77 76 75 74 74 73 72 74 74 74 74 74 76 74 75 77 74 72 73 76 77 78 76 58 59 59 61 61 67 84
76 75 73 73 72 70 70 70 70 69 68 68 67 66 65 65 66 66 66 65 66 66 67 67 67 67 68 70 72 73 73 74 75 75 76 75 74 74 75 76 75 75 76 76 76 75 74 73 75 75 75 75 77 78 78 77 63 57 57 59 58 72 85
82 79 77 76 75 75 74 74 73 72 71 70 70 70 69 69 68 67 65 66 66 66 65 65 66 67 68 69 72 72 73 73 73 73 74 75 75 75 74 73 74 74 74 73 72 72 72 71 72 73 74 75 76 79 79 77 65 55 56 57 56 68 82
79 78 77 77 77 76 76 76 76 76 75 74 72 72 72 71 70 68 67 67 67 67 65 64 65 65 66 68 71 72 72 72 71 72 73 74 74 73 72 72 71 74 75 74 73 72 72 72 71 72 73 74 75 74 74 75 70 57 55 56 57 67 81
77 78 78 78 78 78 76 75 76 76 76 75 74 76 74 73 72 70 69 68 69 67 67 66 66 68 68 69 70 71 72 72 71 71 71 71 72 72 71 72 72 74 74 74 73 72 72 72 72 72 72 73 72 72 73 73 72 64 54 54 56 57 75
80 79 78 77 76 76 77 77 77 77 76 75 76 78 78 75 72 70 70 70 69 68 69 70 71 70 70 71 72 72 71 71 71 70 70 71 71 71 71 72 73 74 74 74 75 73 73 73 74 75 75 75 72 70 71 72 72 67 54 54 55 55 65
81 80 80 77 76 78 78 78 77 76 77 77 78 77 77 74 71 70 71 71 69 70 71 72 73 73 72 72 72 73 73 72 71 70 70 70 71 70 71 72 72 73 72 72 72 73 72 73 74 74 74 75 74 73 72 72 70 71 61 55 54 54 57
78 78 77 77 78 80 80 78 79 79 79 81 79 78 76 75 71 70 70 69 69 72 73 73 73 73 73 73 72 72 74 74 74 72 72 71 71 71 71 72 71 71 71 70 70 69 70 70 71 72 72 72 71 71 71 70 70 67 68 59 54 54 57
79 78 79 82 82 81 81 78 78 78 78 78 77 76 76 74 71 70 68 67 70 72 73 73 74 74 73 73 73 73 74 75 76 75 74 73 72 73 73 72 72 72 71 72 72 72 73 72 72 72 72 72 73 72 72 71 71 69 68 66 58 57 55
79 79 80 79 80 79 79 78 76 76 75 76 75 75 75 75 71 69 68 69 71 71 72 72 73 73 73 74 73 73 75 76 77 77 77 77 76 76 77 76 75 73 74 74 74 74 73 74 76 75 74 75 74 73 73 73 74 73 70 69 65 60 60
79 80 80 79 77 77 77 76 75 74 72 73 74 73 74 74 74 70 70 72 73 73 72 71 70 72 72 74 74 75 76 76 77 76 77 77 77 78 78 77 78 76 75 75 75 73 72 72 74 75 75 74 75 75 76 77 76 74 73 73 72 68 63
77 78 77 76 76 75 75 75 74 73 73 73 74 75 75 74 74 72 72 73 75 75 73 72 72 71 72 73 75 75 76 76 76 75 74 76 77 78 78 78 79 77 76 77 77 76 75 75 75 74 75 73 74 76 76 76 78 77 76 75 77 79 77
75 75 75 76 75 76 75 74 73 72 72 71 72 73 74 74 74 74 76 77 78 76 74 73 73 73 73 74 74 75 75 74 73 74 75 75 77 77 77 78 79 77 75 72 72 73 75 76 74 74 75 76 77 78 78 79 74 72 71 71 70 71 75
71 72 73 74 74 74 74 73 73 71 71 70 72 72 72 72 73 74 73 74 74 74 73 72 72 73 73 74 75 73 74 74 74 76 77 75 76 72 69 70 71 72 72 70 68 67 68 73 75 76 77 77 74 74 77 77 71 67 56 59 52 56 64
74 74 74 74 74 75 74 73 72 71 71 70 71 71 71 71 72 74 76 74 74 73 72 72 72 73 74 75 74 74 75 75 75 75 76 78 75 72 67 57 50 57 71 69 59 50 46 54 67 66 70 74 71 69 71 70 66 50 44 43 43 44 44
73 73 73 74 74 73 73 73 72 71 70 71 71 71 71 71 72 72 73 73 73 73 72 73 73 74 75 75 75 73 75 77 75 74 72 73 74 73 71 71 66 46 45 54 55 50 42 41 42 47 51 62 70 58 50 51 45 42 42 43 43 41 41
74 75 75 75 74 73 72 72 72 71 70 71 71 71 72 72 72 72 74 72 73 73 73 73 73 73 73 74 73 71 73 74 73 74 73 72 72 73 72 72 68 67 49 43 47 47 43 43 42 42 44 44 52 65 61 48 43 41 43 42 41 42 40

ECMWFFLT1_sfc_temp_132.txt.gz
Temp
83 88 86 87 89 90 90 90 90 91 91 90 89 91 91 91 89 88 87 86 85 84 84 85 85 85 85 86 86 86 86 86 86 86 86 86 87 87 87 88 88 86 88 87 87 87 88 89 89 90 88 88 89 88 88 88 88 90 89 88 85 82 86
81 86 87 88 88 89 89 89 90 91 91 91 89 89 92 90 88 89 87 86 86 85 86 85 85 85 86 85 86 86 86 86 87 86 87 85 86 87 88 88 87 86 86 87 88 89 89 90 90 89 89 89 89 88 89 88 87 88 88 87 87 85 86
80 83 87 87 88 88 89 91 91 92 91 92 90 89 91 88 89 88 87 87 86 86 87 87 86 86 87 86 86 86 86 86 88 88 88 88 87 90 89 87 87 88 88 88 88 89 91 90 89 88 89 88 90 88 88 88 87 89 89 87 87 87 86
77 79 83 87 87 88 90 90 91 92 93 93 92 92 91 88 91 89 89 88 87 86 86 87 88 88 88 87 86 86 86 87 88 89 90 89 89 90 88 87 87 89 88 87 90 90 93 90 89 88 89 88 88 89 89 88 89 88 88 87 87 88 86
79 81 82 84 86 87 88 90 90 90 91 94 93 89 92 92 93 92 91 91 90 88 89 89 90 89 89 89 89 90 88 88 88 89 90 89 88 89 90 89 90 89 89 91 88 87 87 88 90 88 88 88 88 88 88 89 89 88 87 87 86 87 87
78 79 80 83 85 88 89 90 91 90 90 92 91 92 92 92 94 94 93 91 91 91 90 90 90 88 88 90 90 90 89 89 88 88 87 86 87 89 89 89 91 90 90 90 90 90 88 89 90 89 89 90 90 90 90 89 90 90 88 87 86 88 89
78 79 79 83 85 87 89 89 90 90 91 92 91 91 91 91 91 91 94 93 92 90 90 91 92 90 89 89 89 89 88 90 90 89 90 89 88 89 89 90 90 90 90 91 89 90 89 90 89 89 90 91 89 91 88 87 88 88 87 86 86 87 87
78 78 79 81 84 87 89 89 89 92 91 90 86 87 90 91 93 92 94 93 93 89 88 89 90 89 89 89 90 90 90 90 91 91 90 91 90 89 91 92 90 90 88 91 90 91 92 91 92 91 91 91 90 89 90 87 87 91 89 87 86 87 91
80 79 79 80 83 86 88 89 89 90 87 86 84 86 86 82 87 93 94 92 92 89 89 92 91 91 88 89 89 90 91 91 91 91 90 91 90 92 92 91 92 91 90 91 92 91 91 92 92 89 89 89 90 89 89 88 89 89 89 87 87 86 89
78 77 75 75 80 81 82 85 87 87 86 85 85 84 82 82 82 83 88 92 93 92 92 93 91 90 89 89 90 92 92 90 91 92 91 92 92 92 92 92 92 92 93 91 94 92 92 93 93 90 88 89 88 88 88 88 89 89 90 88 88 87 87
77 77 76 74 76 79 79 81 84 84 84 82 82 82 81 80 79 80 80 81 88 88 90 90 89 89 88 89 89 91 91 92 93 92 92 92 92 91 92 91 93 91 92 94 91 93 92 91 92 90 89 91 90 89 89 89 89 89 90 91 90 89 89
72 72 72 75 76 77 78 78 80 82 82 84 83 81 79 78 79 78 79 81 88 89 91 89 89 89 88 88 88 87 90 91 92 93 93 93 94 94 94 93 92 92 93 93 93 91 93 91 92 91 89 90 90 90 89 89 89 88 88 91 92 90 89
71 70 71 73 73 74 76 77 76 78 80 80 78 79 80 78 76 78 80 82 87 89 90 89 87 87 87 87 87 87 88 91 92 92 93 93 94 95 95 94 93 91 91 93 93 92 91 92 91 90 90 89 90 91 89 89 89 87 88 89 89 90 88
69 67 70 70 72 71 73 75 76 76 78 78 75 74 75 76 74 76 75 77 85 85 84 84 87 87 86 86 86 86 87 88 89 90 90 91 90 92 95 96 96 94 92 90 91 94 94 91 87 88 90 90 91 90 88 88 89 88 88 88 89 90 89
70 69 68 68 70 71 71 74 75 75 76 75 75 74 73 74 75 75 77 76 76 76 78 80 79 79 81 85 86 86 86 87 89 90 90 89 89 90 91 93 93 93 93 91 92 95 94 92 85 86 88 89 87 89 87 88 89 89 88 88 88 89 89
70 68 68 68 69 71 73 74 75 75 75 76 77 76 73 74 77 78 75 73 76 76 76 76 74 73 75 75 75 80 86 88 87 89 89 89 90 90 89 91 93 95 94 93 93 92 92 92 92 91 88 86 87 88 90 89 89 87 85 86 88 88 90
71 69 70 70 69 69 73 75 75 76 76 76 77 77 75 77 78 79 78 77 76 74 74 73 72 71 75 75 76 73 70 77 85 89 87 86 84 84 86 89 92 90 88 90 91 90 89 91 92 93 94 92 90 88 91 90 82 73 74 78 82 89 86
70 69 71 71 71 70 70 70 72 74 76 76 77 77 77 76 77 78 77 77 75 75 75 73 74 75 75 73 74 72 71 70 69 72 73 72 75 76 74 76 78 77 75 74 75 76 82 87 88 87 88 90 91 92 84 75 66 64 66 69 70 77 85
70 69 69 68 68 69 69 68 68 68 67 70 74 74 74 75 75 76 76 76 76 77 76 75 75 73 73 73 74 73 72 72 71 72 73 73 74 77 77 79 78 76 75 75 76 79 79 79 81 80 81 83 82 81 81 76 64 64 65 65 66 68 79
71 71 71 71 70 69 67 68 68 67 68 68 67 69 71 73 73 73 74 74 75 76 76 76 74 73 72 72 72 72 72 72 72 72 73 74 76 78 78 77 76 76 76 76 76 76 76 78 78 79 80 80 81 80 77 73 63 61 63 63 64 66 73
70 69 69 68 68 68 67 67 67 67 67 67 67 68 70 70 71 71 72 73 73 74 74 74 74 72 73 72 72 72 73 74 74 72 72 72 73 74 74 75 75 76 75 76 76 77 76 76 77 77 77 79 81 81 77 71 59 60 61 62 63 64 73
71 70 68 68 67 66 67 67 67 66 65 67 68 68 68 68 69 69 68 70 71 70 71 71 71 71 72 72 73 72 73 73 74 75 75 72 71 72 73 73 76 76 76 75 75 75 76 78 78 77 77 78 80 78 75 70 58 58 59 60 61 67 81
72 71 70 69 69 68 68 69 68 68 68 68 68 67 66 68 68 68 68 68 69 68 69 70 70 70 70 70 71 73 74 75 74 74 74 73 72 74 75 75 76 75 76 75 74 73 72 73 74 75 76 76 77 77 73 71 61 57 57 59 59 70 81
75 73 73 71 71 71 70 71 71 70 70 69 69 69 69 69 68 67 67 67 67 67 66 67 68 70 70 70 71 71 72 73 74 74 74 75 74 74 74 74 74 74 75 73 73 72 73 73 74 73 72 73 73 75 74 71 63 56 56 57 58 68 78
76 76 75 74 73 72 73 73 73 72 72 71 70 70 71 71 70 68 66 67 67 67 66 66 67 69 69 71 72 71 71 71 71 71 72 72 72 73 72 72 72 73 74 73 73 73 73 73 73 73 72 72 72 74 71 70 66 57 56 57 58 65 76
76 76 77 77 77 76 75 74 73 73 73 72 71 73 72 72 71 69 68 68 69 68 67 67 68 69 70 70 70 70 70 70 70 70 70 70 71 72 72 73 72 72 72 72 72 72 71 71 71 70 70 71 71 71 72 69 67 62 55 56 57 60 74
78 78 78 78 77 76 76 76 75 75 74 74 75 76 76 74 71 69 69 69 69 68 68 70 71 71 70 71 71 70 69 69 69 69 69 69 69 69 70 72 72 72 71 70 71 71 71 71 71 70 69 69 70 69 69 70 68 64 56 56 56 58 67
78 78 78 78 77 77 76 76 75 75 76 76 76 77 76 73 70 70 69 69 69 70 71 72 72 72 72 72 72 72 71 71 71 71 71 71 71 69 69 70 71 71 71 72 72 71 71 71 71 70 70 71 71 70 68 69 70 69 61 57 57 56 60
75 76 76 76 76 78 78 76 76 76 76 77 77 76 74 73 70 69 69 68 70 72 73 73 73 73 72 72 72 72 72 72 72 72 72 72 72 71 70 70 70 70 70 70 70 70 70 70 71 71 70 70 71 70 69 69 70 69 68 60 57 57 58
77 77 78 80 80 79 80 77 76 76 76 76 75 75 74 72 70 69 68 68 71 73 73 74 74 73 73 72 72 73 73 74 73 73 72 72 71 71 71 71 71 70 70 70 70 69 68 68 69 70 70 69 69 69 68 68 68 69 70 67 59 57 57
77 78 78 78 78 78 77 75 73 74 74 74 73 73 72 72 70 69 68 69 72 72 73 73 73 73 73 73 73 74 75 76 74 74 73 73 73 72 71 71 71 70 72 72 72 70 70 70 72 71 71 71 69 68 68 69 69 68 69 69 66 62 61
78 78 78 77 76 75 75 74 74 72 71 72 73 73 73 72 72 69 69 71 72 72 72 72 72 72 72 73 74 74 76 75 76 76 76 76 76 76 75 73 73 72 71 71 71 71 70 70 71 70 70 70 70 69 69 69 69 69 69 71 72 69 63
75 76 75 74 74 74 73 73 72 72 72 71 73 74 74 73 73 72 72 72 74 73 72 71 72 72 72 73 74 75 76 75 75 74 74 75 76 77 76 76 75 74 73 72 73 73 72 72 72 71 71 70 69 71 71 71 71 71 70 69 69 70 70
73 73 74 74 74 74 74 73 72 71 71 70 72 73 73 74 73 74 74 76 76 75 73 72 72 72 72 73 74 74 74 74 75 74 74 74 73 72 72 73 72 70 67 68 68 68 69 72 71 70 71 71 71 71 72 67 66 63 63 64 65 67 67
72 72 73 73 73 74 72 72 71 70 70 70 71 72 72 72 73 74 74 74 74 74 73 72 73 73 73 74 74 72 73 73 73 75 75 74 70 67 64 66 71 69 65 64 64 67 68 68 67 67 69 69 67 68 67 66 64 60 53 53 52 57 63
72 72 73 74 74 73 72 72 71 70 70 70 70 71 71 71 72 74 75 74 74 74 72 72 72 72 73 73 73 73 74 73 75 73 72 76 70 67 63 55 48 57 67 64 55 50 51 56 64 64 68 66 61 61 66 65 61 50 43 43 42 43 44
71 71 71 73 72 71 70 70 70 70 69 69 71 70 70 71 72 73 74 74 74 73 72 72 72 72 74 74 73 72 74 76 74 73 70 71 72 70 69 67 61 44 46 53 51 47 42 42 44 47 53 65 64 54 48 50 46 42 42 42 42 41 41
74 73 72 72 72 70 69 68 68 68 68 69 70 70 71 72 72 72 73 73 73 74 73 73 73 72 72 72 72 72 72 72 73 73 72 71 71 71 70 69 67 65 48 43 48 47 42 41 41 42 45 49 58 63 56 47 43 41 42 42 42 41 40

ECMWFFLT1_sfc_temp_135.txt.gz
Temp
77 80 79 80 83 82 83 84 84 84 83 84 84 84 85 84 83 82 81 80 79 79 80 80 80 80 80 80 81 80 81 81 80 80 80 80 80 79 80 80 80 80 80 80 80 80 81 83 82 83 82 82 82 81 81 81 81 83 81 80 79 80 81
74 77 79 80 80 80 82 84 84 84 84 85 85 84 85 84 83 82 81 80 80 80 80 80 80 80 80 80 81 81 80 81 81 82 81 81 82 80 81 81 80 80 80 81 81 81 83 83 83 82 82 82 81 81 82 81 81 81 81 80 79 79 81
74 76 78 80 79 80 81 84 84 84 84 85 86 85 85 83 83 82 81 81 80 80 81 81 81 81 81 80 80 81 81 81 81 81 81 81 81 84 83 82 81 81 82 83 82 83 84 83 82 82 83 83 82 82 81 81 81 82 80 80 80 80 79
73 74 77 80 79 80 83 84 83 85 86 86 86 85 84 83 85 83 83 82 81 80 80 81 82 82 81 80 81 80 81 81 82 83 83 82 82 82 82 81 81 83 82 82 84 86 87 83 83 82 84 82 81 82 82 82 82 81 81 80 80 80 79
74 76 76 80 80 79 82 83 82 84 85 86 86 84 85 85 85 85 85 84 83 82 82 83 84 83 82 82 84 83 82 82 82 83 84 83 83 83 83 83 83 83 82 84 82 83 82 83 83 81 82 81 81 82 82 82 82 82 80 81 80 81 80
74 73 74 76 80 81 82 84 82 83 84 85 86 85 86 86 85 85 85 84 84 84 84 84 84 83 82 84 84 84 82 82 82 82 83 83 83 83 83 84 84 83 84 84 84 84 82 83 83 83 83 83 83 84 83 83 82 84 81 81 80 81 82
71 73 72 75 78 81 83 84 83 83 84 85 85 84 85 85 84 85 86 85 85 83 83 84 85 84 83 84 83 83 82 83 83 83 84 84 83 83 82 84 83 85 84 84 84 84 84 83 83 84 84 85 83 84 83 82 82 82 81 80 80 79 80
70 72 73 76 78 81 83 83 83 83 83 83 84 82 85 85 86 85 85 85 85 83 82 83 83 83 83 84 84 83 84 84 84 84 83 84 83 83 83 84 83 84 84 84 84 85 86 84 86 84 85 85 84 83 84 82 81 84 82 81 80 80 85
71 72 73 74 76 80 82 82 82 82 81 82 82 80 83 83 84 85 86 85 84 83 82 84 83 84 82 82 82 83 85 85 84 84 84 84 84 85 86 86 85 85 84 85 85 85 86 86 86 83 84 84 83 82 83 82 83 83 82 81 81 80 83
72 72 73 72 75 76 77 78 79 79 80 80 79 78 77 77 78 82 86 84 84 84 84 85 83 83 83 81 82 85 85 84 85 86 86 86 85 86 87 87 86 85 86 86 86 86 85 86 86 84 82 83 81 82 82 82 83 83 83 82 82 82 81
69 71 72 70 72 74 76 77 78 77 79 79 77 76 74 76 76 78 80 80 80 82 85 84 82 83 82 82 83 83 84 85 86 85 85 85 86 87 87 87 87 86 87 87 84 86 85 81 84 84 83 86 83 81 81 82 83 82 83 83 84 83 84
68 70 70 71 70 71 72 73 75 77 77 78 78 77 74 75 76 76 76 76 76 74 75 79 81 83 82 82 82 81 83 84 85 86 86 86 87 87 87 87 87 87 87 86 86 84 80 78 79 80 82 84 83 83 82 82 83 81 81 84 84 84 84
68 68 70 70 69 69 70 72 72 74 76 76 76 76 75 75 76 76 74 74 74 74 75 76 76 80 81 82 80 80 81 83 84 84 86 86 86 88 87 88 88 88 87 87 86 84 79 79 79 80 82 83 83 84 83 83 83 82 81 83 83 84 82
69 67 68 69 70 70 70 69 71 72 72 74 74 73 73 73 73 73 72 72 74 75 75 75 75 77 80 80 79 79 80 80 81 82 82 84 84 84 87 88 87 87 86 84 78 82 84 84 82 83 84 83 83 83 83 82 83 82 82 83 84 83 82
67 66 66 68 68 68 69 70 71 71 71 72 73 72 72 72 72 71 72 73 74 74 74 74 72 72 75 75 74 73 73 75 77 77 78 79 79 82 83 84 85 85 84 82 80 85 84 85 81 81 80 81 83 83 83 83 83 83 83 82 82 83 83
66 66 66 67 67 69 69 69 70 72 71 71 72 71 71 71 71 71 71 72 73 73 73 72 71 71 74 73 73 72 72 73 74 74 74 74 75 75 76 79 78 78 79 81 81 80 82 83 84 84 84 83 82 82 84 82 80 74 74 77 80 81 84
65 65 66 67 66 67 69 70 70 71 71 71 71 70 71 71 71 71 71 71 72 73 73 72 71 72 73 72 72 71 71 72 73 73 72 73 73 74 75 76 77 76 76 76 77 77 78 80 81 82 84 83 82 78 75 72 71 68 65 68 73 82 80
65 66 66 66 66 66 66 68 69 70 71 72 70 71 72 72 72 72 71 71 70 71 72 71 71 72 71 71 70 70 70 70 72 73 72 73 72 73 75 75 75 74 74 75 76 76 78 79 78 79 80 79 77 75 73 69 65 64 65 67 67 72 77
68 68 68 66 66 66 66 67 67 67 68 69 71 71 71 72 71 71 71 70 71 71 71 71 72 70 70 70 70 69 70 70 71 71 71 71 71 74 75 74 74 74 73 73 74 76 75 76 78 77 78 78 74 73 71 69 63 63 65 65 66 67 74
68 68 68 68 68 67 66 65 65 66 67 67 69 70 71 71 70 70 71 72 73 72 72 72 71 70 70 70 70 70 70 70 71 71 71 72 73 74 74 73 72 73 73 74 74 74 74 75 74 75 75 75 72 70 69 67 62 62 63 64 65 66 71
67 67 66 66 66 66 66 65 65 65 65 66 68 69 69 69 70 70 70 71 71 72 72 71 71 70 70 70 70 70 70 71 71 70 70 71 72 72 72 72 72 72 72 72 72 72 73 74 73 74 74 75 73 71 69 66 60 60 62 62 63 66 75
68 68 66 66 66 66 66 66 65 64 65 67 67 68 68 68 69 69 68 69 70 70 71 71 70 70 70 70 70 71 72 71 70 70 69 69 70 71 72 72 72 72 73 72 72 72 73 74 74 73 73 73 72 70 68 65 58 58 59 60 61 69 78
69 68 68 67 67 67 67 67 67 66 67 66 66 67 67 68 68 68 68 68 68 69 69 69 68 69 70 70 70 71 71 71 71 70 70 69 70 71 72 72 72 72 73 72 71 71 71 71 72 72 72 72 71 68 67 65 60 57 57 58 59 69 75
70 70 69 68 68 68 68 68 68 68 68 67 66 67 68 68 67 67 67 66 67 67 67 68 67 68 69 69 69 69 70 70 71 71 71 71 71 71 71 71 71 71 73 71 70 70 70 71 70 71 71 71 69 69 67 66 62 57 57 58 58 68 74
70 70 70 70 69 68 69 69 69 70 69 68 67 67 68 68 68 67 66 66 66 67 66 66 67 68 68 69 69 70 70 70 70 70 70 70 70 70 70 70 70 71 71 71 70 70 70 71 70 69 70 70 69 71 67 65 65 58 57 58 59 69 73
70 70 71 72 72 71 70 70 70 69 69 68 68 70 70 69 68 67 67 67 67 67 66 66 67 68 68 68 68 68 69 69 69 69 69 69 69 69 69 70 69 69 70 70 70 69 69 69 68 67 67 68 68 68 68 66 65 62 56 57 59 63 71
72 72 72 72 71 72 72 72 71 70 70 69 70 71 71 70 68 67 67 67 67 66 67 68 68 68 68 67 67 67 67 67 67 67 68 68 67 68 68 68 68 68 68 68 69 69 68 67 67 67 66 66 66 66 67 68 65 63 56 56 58 60 67
73 73 74 73 73 72 72 72 71 71 72 72 73 72 71 70 68 67 67 67 66 67 69 69 69 69 68 68 68 68 69 68 69 69 69 69 68 66 65 67 68 68 68 69 68 68 68 68 68 67 67 66 66 66 66 69 69 66 61 56 56 57 62
69 69 70 69 70 72 72 70 70 71 71 72 72 71 70 70 67 67 67 66 67 69 69 69 69 69 68 68 68 68 68 69 70 70 70 70 69 67 66 67 67 67 68 67 67 67 67 67 67 67 65 65 65 66 66 66 68 68 66 60 56 56 57
69 70 70 73 73 72 72 69 69 69 70 69 69 69 68 67 66 66 65 64 66 68 69 69 68 68 69 69 68 68 68 69 70 70 70 70 69 68 67 67 67 67 68 67 67 66 66 67 67 66 66 65 64 66 66 65 65 68 68 65 58 56 56
69 68 69 69 70 71 70 68 67 67 67 67 67 67 66 67 66 66 65 65 67 67 68 68 68 68 68 68 68 69 69 69 69 69 69 69 69 68 68 67 68 66 67 67 67 67 66 66 68 67 67 66 65 64 65 67 66 66 69 70 67 60 58
70 70 69 69 68 68 68 67 68 68 66 66 66 66 66 66 65 64 64 66 67 66 67 68 67 67 67 67 68 69 70 69 69 68 68 69 69 69 68 68 69 68 67 67 67 67 67 67 68 67 67 66 66 65 65 66 66 66 67 69 70 68 62
68 68 67 66 66 66 65 65 65 65 66 66 67 67 67 66 65 65 65 66 66 66 66 67 67 68 66 66 68 68 68 68 68 67 68 68 69 70 70 70 68 68 68 67 66 67 68 69 68 66 66 66 65 66 66 65 63 63 63 63 64 65 65
66 66 66 67 66 66 64 64 63 64 64 63 64 65 67 67 66 66 67 69 69 67 66 67 67 66 65 66 67 68 68 68 74 70 65 65 65 66 67 66 66 65 63 63 63 64 64 65 65 64 64 64 65 64 63 61 60 58 57 58 58 61 61
66 65 66 66 65 65 63 63 63 63 63 63 63 63 63 64 65 67 66 68 68 66 66 66 69 66 65 66 66 67 69 67 68 67 64 63 61 58 57 60 64 62 60 60 58 62 65 63 63 64 63 62 62 63 61 61 60 58 53 52 49 52 57
65 65 65 66 66 65 65 64 63 62 62 61 62 63 63 63 64 65 68 66 66 66 65 66 66 65 65 65 65 66 67 67 66 66 65 63 61 59 58 53 47 52 60 59 56 51 50 56 62 63 62 58 57 57 61 61 59 50 44 44 42 42 43
65 65 65 66 65 64 63 63 64 63 62 61 62 62 63 63 64 64 66 66 66 66 65 64 65 65 65 66 65 66 68 67 65 65 63 63 62 61 60 58 56 44 45 52 52 48 42 42 45 51 58 62 58 53 49 51 46 43 42 42 42 41 41
67 66 66 66 65 63 63 62 62 62 61 62 63 62 62 63 64 64 67 66 67 66 65 66 65 63 64 64 65 68 67 64 66 66 65 63 62 62 61 59 57 55 45 43 47 45 41 41 42 46 51 53 56 57 52 47 44 41 41 41 41 41 41

ECMWFFLT1_sfc_temp_138.txt.gz
Temp
75 75 75 78 79 80 80 80 81 81 81 80 80 81 81 81 79 79 78 77 77 76 77 77 78 78 77 77 77 77 78 78 78 78 77 77 78 77 77 77 78 77 78 77 77 77 79 80 80 80 79 79 79 79 79 79 79 80 78 79 79 78 77
73 74 75 78 78 79 80 81 81 81 80 81 80 80 81 80 79 79 78 78 77 77 77 78 78 78 78 78 78 77 78 78 79 79 79 78 79 77 78 78 78 77 77 78 78 78 79 80 80 80 80 80 80 79 79 79 78 78 78 78 77 78 78
72 74 75 77 78 78 79 81 81 81 81 81 81 81 81 79 80 79 78 78 77 77 78 78 78 78 78 78 78 78 78 78 79 79 78 79 78 80 79 78 78 78 79 79 79 79 81 80 79 80 80 80 80 79 79 78 79 78 78 77 78 77 77
72 72 74 76 78 79 81 81 80 81 82 82 81 81 81 80 81 80 80 79 78 77 77 78 79 79 78 78 78 78 78 78 79 80 81 80 80 80 79 78 78 79 79 79 81 82 84 80 80 79 82 79 79 80 79 79 79 78 78 77 77 77 77
71 71 71 72 74 79 79 80 80 80 81 82 82 82 81 81 81 81 80 80 80 78 79 80 81 80 80 80 81 80 79 79 79 80 80 80 80 80 80 80 79 80 80 81 80 80 79 79 80 79 80 78 79 79 79 79 79 78 77 77 77 77 77
71 70 67 70 74 77 80 80 81 80 81 81 81 81 81 81 81 81 81 80 80 80 80 80 80 80 79 80 81 81 80 79 79 79 80 80 79 79 80 80 81 81 80 81 81 81 80 80 80 80 80 80 80 80 80 79 79 80 77 77 77 78 78
69 69 69 69 72 72 75 80 81 81 82 82 82 82 81 81 80 80 81 80 80 79 79 80 81 80 79 80 80 80 79 80 79 80 80 81 81 80 80 81 81 81 82 80 81 81 80 80 80 81 81 81 80 81 80 79 79 79 78 77 77 77 77
68 69 69 71 72 74 72 71 79 82 82 81 81 80 80 81 81 80 80 80 81 79 79 79 80 80 79 80 81 80 80 81 80 81 80 81 81 80 80 81 81 81 81 81 81 82 82 81 82 81 81 82 80 80 80 79 79 80 79 78 77 77 81
69 69 70 71 71 72 71 71 69 78 81 80 80 79 80 80 80 81 81 80 80 79 79 80 80 80 79 80 80 80 81 81 81 80 80 81 81 82 82 82 82 82 81 82 82 82 83 82 82 81 81 81 80 79 79 79 80 80 79 78 78 78 79
69 69 70 70 70 69 71 70 71 69 76 79 78 78 79 79 80 81 81 81 80 80 80 81 79 80 79 79 79 81 81 80 81 82 81 81 81 82 82 83 82 82 83 83 83 82 82 83 83 81 80 81 80 79 80 79 80 80 80 79 79 79 78
68 69 69 68 68 69 70 70 69 70 72 76 78 78 77 77 79 80 80 79 80 80 80 81 79 79 79 80 78 80 81 81 82 82 81 82 82 82 83 83 84 82 83 82 80 81 80 79 80 79 80 82 80 80 79 80 80 80 81 81 81 81 81
68 69 68 68 68 69 69 69 71 71 73 76 78 76 74 74 74 76 76 78 80 78 77 78 79 80 79 80 79 78 80 81 82 82 82 82 83 84 84 84 84 83 76 74 75 75 73 73 75 77 78 78 79 79 80 80 80 80 80 81 81 81 81
68 68 68 69 68 68 69 70 71 71 70 71 70 71 74 73 73 73 73 75 77 77 76 76 78 78 79 79 79 77 79 80 81 82 83 82 83 84 84 84 83 76 76 77 77 76 75 75 75 74 76 79 80 80 79 79 81 79 79 80 80 80 80
69 67 68 68 68 68 69 69 69 69 69 71 70 70 71 73 74 73 73 73 74 75 75 75 76 77 77 78 78 77 78 79 80 81 81 82 81 81 83 84 81 76 78 78 77 78 78 76 76 77 79 78 79 79 80 78 76 78 79 80 80 80 79
67 67 67 68 68 67 69 69 68 69 69 70 70 70 70 70 72 72 72 73 73 73 74 74 75 76 76 76 76 74 74 74 74 75 76 76 76 78 78 80 79 79 79 78 78 80 79 79 78 78 77 78 78 79 78 76 77 76 77 78 79 79 79
66 66 67 67 67 68 69 69 68 69 69 69 70 70 70 70 71 72 71 71 71 72 73 73 74 74 74 74 73 73 73 74 74 73 74 75 75 74 75 77 79 80 79 79 79 79 78 80 80 80 79 77 77 77 77 76 76 75 74 76 77 77 80
65 66 66 66 67 68 68 68 69 69 69 69 69 69 69 69 70 71 71 71 71 71 72 72 73 73 73 72 71 71 73 73 73 72 73 73 74 73 74 75 77 76 76 76 76 76 77 79 80 81 81 80 78 75 74 73 72 70 65 67 73 79 77
65 66 66 65 65 67 68 69 69 69 69 69 69 69 69 69 70 70 70 71 71 71 71 71 72 72 71 70 69 70 71 72 72 72 72 72 73 73 72 74 74 74 74 75 75 75 76 77 77 77 78 78 75 73 71 68 65 62 65 67 69 77 77
64 65 65 65 65 65 66 67 68 70 69 70 70 70 70 71 70 70 70 70 70 71 71 70 70 70 69 69 69 69 69 70 71 71 71 72 73 73 72 72 73 73 73 73 74 74 74 74 75 74 74 73 72 70 69 67 63 62 64 65 66 66 75
66 65 65 65 66 65 65 65 66 67 69 70 71 71 71 71 70 70 70 70 70 70 70 70 70 69 69 68 68 68 69 70 69 70 70 71 72 72 72 72 72 72 73 73 73 73 73 73 72 71 70 70 69 67 67 66 62 61 62 62 64 65 69
65 65 65 65 64 64 65 65 65 66 67 68 69 70 70 70 71 70 70 70 70 70 70 70 69 68 68 68 68 68 69 70 70 69 69 70 70 71 71 71 71 71 72 72 72 72 72 72 71 71 70 70 69 68 66 66 60 59 61 61 62 64 74
66 66 64 65 65 64 64 64 63 64 64 67 68 68 68 68 69 70 70 71 70 70 70 69 69 68 68 68 69 69 69 70 70 70 69 69 70 70 70 70 71 71 72 72 72 72 72 72 72 70 68 68 68 67 66 65 59 58 59 60 61 67 75
66 66 66 66 66 65 66 65 64 64 65 66 67 67 67 68 68 68 69 69 69 70 70 69 69 68 69 69 70 70 70 70 69 69 69 70 71 71 71 71 70 70 71 71 71 71 71 70 70 69 68 67 67 66 64 65 61 57 57 58 59 70 73
67 67 67 66 66 66 66 66 66 66 66 65 66 67 67 67 67 67 67 67 68 68 68 68 68 69 69 69 70 70 70 70 70 69 70 71 70 70 71 70 70 70 71 70 70 70 70 69 69 69 68 67 65 66 65 65 62 56 57 57 60 71 72
67 68 68 68 67 66 66 66 67 67 67 66 66 66 67 67 67 67 66 67 67 67 67 67 67 68 68 68 69 70 70 70 70 70 70 69 69 70 69 70 70 70 70 70 70 70 70 70 68 67 67 67 68 71 65 64 64 57 56 57 59 67 70
65 67 68 69 69 68 68 68 68 67 67 66 66 68 68 67 67 67 66 66 67 67 66 66 66 67 67 68 68 69 69 69 70 70 69 69 68 69 69 70 69 69 69 69 70 69 69 68 68 66 66 67 67 67 65 64 63 61 56 56 58 62 69
67 68 67 68 68 69 68 68 68 68 68 67 68 69 69 68 67 66 66 65 65 65 66 66 67 67 66 67 67 67 68 68 68 68 68 68 67 68 68 68 68 68 68 68 67 67 66 66 66 65 65 66 66 65 65 66 64 61 56 55 57 60 66
68 68 69 69 70 69 68 68 68 68 69 69 70 70 69 68 66 66 66 65 65 66 67 67 67 67 67 67 67 68 68 67 66 67 66 67 67 65 65 66 67 68 67 67 66 66 66 66 66 64 64 65 66 65 64 68 68 64 59 56 55 57 61
65 65 66 66 67 68 69 67 67 67 67 69 70 70 69 68 66 66 66 64 65 67 67 67 67 67 67 67 67 68 68 68 68 68 68 67 67 66 65 66 67 67 67 67 67 66 66 66 66 65 64 64 64 64 65 65 68 67 64 58 54 54 57
65 65 66 68 68 67 67 65 65 65 67 68 68 68 68 68 66 66 66 65 67 68 68 68 68 68 68 68 67 67 68 69 69 69 68 67 67 66 65 65 66 66 66 66 66 65 65 65 65 65 65 64 64 65 65 65 64 67 67 63 57 55 54
64 64 64 64 65 66 65 64 63 63 64 64 64 65 65 67 67 66 65 66 68 68 68 68 68 67 66 65 65 66 66 66 66 67 67 67 67 66 66 66 66 66 66 66 65 65 65 65 66 65 65 64 64 63 64 65 64 63 67 69 66 59 56
64 64 64 64 63 64 63 63 63 62 62 62 63 63 64 63 65 64 63 65 66 65 66 67 66 66 65 65 66 65 66 66 66 65 66 67 67 67 66 66 66 66 65 65 65 64 65 65 66 65 65 64 63 63 64 64 63 63 63 65 67 65 61
63 63 63 62 62 63 62 61 61 61 62 61 61 62 63 62 62 63 64 65 65 65 66 67 67 67 65 64 65 65 65 64 64 64 64 65 65 66 66 65 64 66 65 64 64 64 65 66 66 65 65 65 63 63 62 62 61 61 61 60 61 61 62
61 61 61 62 61 61 60 59 59 59 60 59 59 61 62 62 62 62 63 65 66 66 66 67 67 64 63 64 65 65 65 65 69 65 61 62 63 63 63 62 63 61 61 60 62 62 62 64 63 62 64 63 63 62 61 60 59 58 57 57 56 57 58
60 60 60 60 60 60 59 59 58 58 59 58 58 59 60 61 62 63 62 63 64 64 65 66 68 65 64 64 64 65 67 65 64 62 61 59 57 54 54 57 60 60 57 56 56 61 63 61 61 63 62 63 62 61 60 60 59 59 54 53 51 50 54
60 60 60 60 62 61 61 60 59 59 59 57 58 59 60 60 61 62 63 62 62 62 64 65 64 62 63 63 62 63 64 63 62 61 61 60 58 57 56 53 47 49 57 58 55 50 47 55 60 61 59 57 56 57 59 59 60 51 45 44 43 43 43
62 61 61 61 61 60 60 60 60 59 59 58 59 59 60 60 60 61 62 62 62 62 62 62 63 62 62 63 62 63 64 62 60 59 58 59 58 58 58 56 54 44 44 50 51 46 42 44 48 53 57 61 56 53 49 50 46 43 43 42 41 41 40
63 63 62 62 62 61 60 60 60 60 59 58 58 58 59 60 61 61 63 62 61 61 60 61 62 60 60 59 62 66 64 60 62 61 60 57 57 58 57 56 55 55 46 43 45 46 42 41 43 46 49 52 55 57 53 48 45 42 41 41 41 40 40

ECMWFFLT1_sfc_temp_141.txt.gz
Temp
72 72 73 75 76 76 76 77 77 77 77 77 78 78 78 77 77 76 76 75 75 75 75 75 75 75 75 75 75 75 75 76 75 75 74 74 75 74 74 74 75 74 74 75 74 74 76 76 77 77 77 77 77 77 76 77 77 79 77 77 77 77 75
69 72 73 75 75 76 76 77 77 78 78 78 78 78 78 77 77 76 76 76 76 76 75 76 76 76 76 76 76 75 75 75 76 77 76 75 77 75 76 75 75 75 74 75 75 75 76 76 77 76 76 77 77 76 77 77 77 77 76 76 76 76 75
70 72 73 74 75 75 76 77 78 78 78 78 79 78 78 77 77 77 76 76 75 76 76 76 76 76 76 76 75 75 76 76 76 77 76 76 75 77 76 76 76 76 76 76 76 77 77 77 76 76 76 76 77 76 77 76 77 76 76 76 76 76 75
72 71 73 75 76 76 77 78 78 79 79 79 79 79 78 77 78 78 77 77 76 76 75 76 77 77 76 76 76 75 75 76 77 78 78 77 77 77 76 75 76 76 76 76 78 78 80 78 77 77 79 77 77 77 77 77 77 77 76 76 75 75 75
72 72 73 74 75 76 77 77 78 78 79 80 80 79 79 79 79 79 78 78 78 76 77 77 78 78 78 77 78 78 77 76 77 78 78 78 78 77 77 77 76 77 77 78 77 78 77 77 77 77 77 77 77 77 77 77 77 76 76 75 75 76 76
71 71 72 74 74 75 76 78 78 78 79 79 79 79 79 79 79 79 79 78 78 78 78 77 78 77 77 78 79 79 77 77 77 77 78 78 77 77 77 78 77 77 78 78 79 78 78 77 77 77 78 78 78 78 77 77 77 77 76 75 75 76 77
70 71 71 72 74 72 72 73 75 78 80 80 80 80 79 79 78 78 79 78 78 77 77 77 78 78 77 78 78 78 77 77 77 77 78 78 78 78 78 78 79 78 79 78 78 78 78 77 77 78 78 79 78 79 77 77 77 76 76 75 75 75 76
68 69 70 71 71 74 73 71 73 74 74 77 78 78 78 78 79 78 78 78 78 77 77 77 77 78 77 78 78 78 78 78 78 78 77 78 78 78 78 78 78 78 78 78 79 78 77 77 78 78 79 79 78 78 78 77 77 78 77 76 75 75 78
67 68 69 70 70 73 72 71 72 73 74 74 77 77 78 77 78 78 78 78 78 77 76 78 78 78 77 77 78 77 78 79 78 78 78 78 78 79 79 79 79 79 77 75 71 70 70 71 71 71 75 78 78 78 78 77 78 77 77 76 76 76 77
66 67 68 68 69 70 72 71 70 71 72 73 73 74 76 77 77 78 78 78 78 77 77 78 78 78 77 77 77 78 78 78 79 79 79 79 79 79 80 80 79 73 70 71 71 71 72 72 73 73 73 75 77 77 77 77 78 78 77 77 77 77 77
66 67 67 68 68 68 69 69 70 71 71 70 69 70 71 73 76 77 77 77 77 77 78 78 78 77 77 77 77 78 78 78 79 79 79 79 80 80 80 80 77 72 74 73 73 73 72 72 73 73 75 77 78 78 77 77 78 77 78 78 78 78 78
66 67 67 68 68 68 68 69 70 70 70 70 70 71 70 70 71 75 77 77 78 77 77 77 77 77 77 77 77 76 77 78 79 79 79 79 80 81 81 80 76 74 74 74 74 74 73 72 72 73 74 76 77 77 78 78 78 78 78 79 79 78 78
67 67 67 68 68 68 68 68 69 69 70 70 70 71 71 71 70 71 74 76 77 78 77 77 77 77 77 77 77 76 77 78 78 79 80 80 80 81 81 80 76 75 74 75 76 75 73 73 73 74 74 76 76 77 77 77 77 76 76 77 78 78 78
68 67 67 67 68 68 68 68 68 69 69 69 69 70 70 70 70 69 69 71 75 77 76 77 76 76 76 77 76 76 77 77 78 78 79 80 79 79 80 77 76 76 76 76 75 76 76 74 74 75 76 75 76 77 77 76 75 75 75 76 77 77 77
66 66 66 67 67 67 68 68 68 68 69 69 69 69 69 69 70 70 71 71 70 73 76 75 75 75 76 76 76 76 76 77 77 78 78 79 77 78 77 78 77 77 76 76 76 78 77 77 77 75 74 75 76 77 76 75 75 76 76 75 75 76 77
66 65 66 66 67 68 68 68 69 69 69 69 69 69 69 69 70 70 71 71 71 70 73 74 75 75 75 75 75 75 74 75 75 76 76 77 76 76 75 77 77 77 77 77 77 77 77 77 77 77 77 76 75 75 75 76 76 77 76 75 75 75 78
65 65 66 66 65 67 68 68 69 69 69 69 69 69 70 69 70 70 71 71 71 71 71 73 74 74 73 71 71 71 72 73 73 73 74 75 75 74 74 76 77 76 76 76 76 76 76 77 76 77 77 77 77 75 75 74 74 71 64 67 70 76 75
65 65 66 66 66 66 66 67 68 69 69 69 70 70 70 70 70 70 70 71 71 71 71 71 72 71 70 69 70 69 69 69 71 71 72 72 73 73 73 75 75 75 75 75 75 75 76 76 76 76 76 77 75 74 72 69 66 62 65 67 69 74 76
65 65 65 65 66 66 66 67 67 68 68 69 70 70 70 70 70 70 70 69 68 69 69 70 71 71 70 70 71 70 69 70 70 70 70 70 71 71 72 72 73 73 73 73 74 75 74 74 75 75 75 75 72 71 69 68 63 62 64 65 65 66 74
66 65 65 65 65 65 65 66 66 67 68 68 68 69 70 70 70 70 70 69 70 69 69 69 69 70 70 70 70 70 70 70 70 70 70 71 71 70 70 71 72 72 72 73 73 73 72 72 71 71 70 70 69 67 66 66 63 60 62 62 63 65 69
65 64 64 64 64 64 64 65 67 67 68 68 69 69 69 69 70 69 69 69 69 69 69 69 69 68 69 69 69 69 69 69 69 68 69 69 70 70 70 70 71 71 71 71 72 71 71 70 68 69 68 68 67 67 66 66 60 59 60 60 61 61 70
65 64 63 63 63 63 63 63 65 68 67 69 69 69 69 69 69 69 69 69 69 69 69 69 68 68 68 68 68 69 69 69 68 69 70 70 69 69 69 69 70 70 71 71 71 71 70 69 69 67 66 66 66 66 65 65 59 58 59 59 60 64 72
66 65 65 64 64 63 63 64 64 65 67 67 68 68 68 69 70 69 69 69 69 69 69 69 68 68 68 68 68 68 69 69 69 69 69 69 69 69 69 70 69 70 70 70 70 70 68 68 67 66 66 66 66 65 64 64 60 57 57 58 58 65 70
65 66 66 66 65 64 64 64 65 66 66 66 67 67 68 68 69 69 69 69 69 69 68 68 68 68 68 68 69 69 69 69 69 69 69 69 69 69 69 69 70 70 71 70 69 69 68 67 66 66 66 66 65 66 64 64 62 56 56 57 57 68 70
66 66 66 67 66 65 65 65 66 66 66 67 66 66 67 68 68 68 68 68 68 68 68 68 68 68 68 69 70 69 69 69 69 69 70 70 69 69 69 69 69 70 70 70 70 69 68 68 65 65 66 66 67 70 64 63 63 57 55 56 58 66 69
65 66 66 67 67 67 67 67 67 66 65 65 65 67 67 68 67 67 66 67 67 67 67 67 67 68 69 69 70 70 69 69 70 70 70 69 69 69 69 70 70 69 70 70 69 69 67 67 66 64 64 65 65 65 64 62 62 60 54 55 57 62 68
67 67 66 67 67 68 67 67 67 66 66 66 67 68 68 67 66 65 66 66 67 66 66 66 67 67 68 68 69 69 69 69 69 69 69 69 68 69 69 69 69 69 68 68 67 66 66 65 65 65 64 65 65 65 65 65 62 60 55 55 56 59 65
67 68 69 69 69 68 67 67 67 67 68 68 68 69 68 67 65 65 65 64 64 64 65 66 66 66 67 67 67 67 67 67 68 68 68 68 68 67 67 67 68 67 67 66 65 65 64 65 65 64 64 64 65 65 64 67 66 62 59 55 55 56 60
65 65 65 65 65 67 66 64 65 65 66 68 68 68 68 67 65 65 65 63 63 64 65 66 66 66 66 66 66 67 67 67 67 66 66 66 67 66 66 66 66 66 66 65 65 64 64 64 63 63 62 63 63 63 64 65 67 66 63 58 54 54 55
62 63 64 65 65 64 64 62 63 64 65 66 67 68 68 67 65 65 64 63 65 66 66 66 66 66 66 66 66 65 66 67 67 67 67 66 65 65 65 65 66 66 65 65 64 63 63 63 62 62 62 61 62 64 63 64 64 67 66 63 56 54 54
60 61 61 61 62 63 62 61 61 62 62 64 64 65 66 67 66 66 64 65 67 66 66 66 67 67 66 66 66 67 67 67 67 67 67 67 67 67 67 66 66 65 65 65 64 64 63 62 63 62 62 62 63 62 62 63 63 63 67 67 64 57 55
60 60 60 60 59 61 60 60 61 61 61 61 62 63 64 65 66 65 63 65 66 65 66 66 66 65 65 66 66 66 67 67 66 66 67 67 66 67 66 66 65 65 63 64 64 64 64 63 64 63 63 62 61 61 60 61 61 61 62 65 66 64 60
59 59 59 58 58 59 58 58 59 59 60 59 59 61 63 63 64 64 64 65 65 65 65 65 66 66 65 64 64 64 65 64 64 63 63 63 62 63 64 64 65 65 65 64 63 63 64 65 65 63 62 61 60 60 60 59 58 58 58 58 60 60 60
58 59 58 57 58 57 56 56 56 57 57 57 57 58 60 60 60 61 62 63 65 64 65 65 65 63 63 64 64 64 64 65 68 63 59 58 59 60 60 61 61 60 61 61 61 63 63 65 65 63 63 60 59 58 58 58 57 56 55 55 56 57 57
58 57 57 57 57 57 56 55 55 55 56 56 56 57 57 58 59 60 60 61 62 63 65 65 66 63 62 63 63 65 66 63 61 59 58 56 54 52 52 53 55 57 56 56 55 58 62 63 61 64 62 61 59 58 59 58 58 57 52 51 48 49 53
58 58 57 56 57 56 57 56 56 56 56 55 55 56 57 57 58 58 60 60 60 61 64 64 63 61 61 61 61 62 62 61 60 59 59 57 56 55 54 52 47 49 55 56 54 51 48 53 60 61 60 58 55 56 57 58 57 48 43 41 41 42 43
59 58 58 57 57 55 55 55 57 56 56 55 56 57 57 57 57 58 59 58 59 60 59 60 61 61 61 62 61 63 63 61 59 59 57 57 56 56 55 54 52 43 44 50 51 47 42 43 47 52 57 61 56 52 48 48 45 42 41 41 40 40 40
59 59 59 58 58 56 56 56 56 56 56 55 56 56 57 57 57 57 59 57 57 58 58 59 60 58 59 59 61 64 62 58 60 59 58 56 55 57 56 55 54 54 46 43 46 46 42 41 42 43 46 50 54 55 50 47 43 40 41 40 41 40 40

ECMWFFLT1_sfc_temp_144.txt.gz
Temp
70 71 72 73 74 74 75 75 75 75 76 76 76 76 77 76 76 75 75 75 75 74 74 75 75 75 75 75 75 75 75 75 75 75 75 74 75 74 74 74 75 75 75 76 76 76 78 78 78 79 78 78 78 78 78 79 79 80 78 78 78 78 78
69 71 72 73 74 74 75 75 75 76 76 76 76 76 77 76 76 75 75 75 75 75 75 75 75 75 75 75 75 75 75 75 76 77 76 75 76 75 76 75 75 75 75 76 76 76 77 78 78 78 78 79 79 78 79 79 79 79 79 79 78 78 78
69 71 72 73 73 74 75 76 76 76 76 77 77 76 76 76 76 76 75 75 75 75 76 76 76 76 76 76 75 75 75 75 76 76 75 76 76 77 76 76 76 76 77 77 77 77 78 78 77 78 78 78 79 79 78 79 79 79 79 78 79 79 78
70 71 72 74 74 75 76 76 76 77 78 78 77 77 77 76 77 77 76 76 75 75 75 76 77 76 76 76 76 75 75 75 76 77 77 77 76 76 76 76 76 77 76 77 78 78 80 79 78 77 80 78 78 79 79 79 80 79 79 78 79 78 78
70 72 73 73 73 74 75 75 76 76 77 78 78 78 78 78 78 77 77 77 77 76 77 77 78 78 77 77 77 77 77 76 76 77 77 77 77 77 77 77 76 77 77 78 78 78 78 78 79 78 78 78 79 78 79 79 79 79 78 78 78 79 79
70 70 71 72 73 74 75 76 76 76 77 77 78 78 78 78 78 78 78 77 77 78 77 77 77 77 77 77 78 78 77 77 77 77 77 77 77 77 77 77 78 77 78 78 79 78 78 78 79 79 79 79 79 80 80 80 80 80 79 78 78 79 79
72 71 71 72 73 73 74 75 76 77 78 78 78 78 78 78 77 77 78 77 77 76 76 77 78 78 77 77 77 78 77 77 77 77 78 78 78 78 77 78 78 78 79 78 78 78 78 77 77 78 78 79 79 80 79 78 79 79 79 78 78 77 78
72 71 72 73 74 75 75 75 76 77 77 77 77 76 77 77 78 77 77 77 77 77 76 76 77 77 77 77 78 78 78 78 78 78 78 79 78 78 78 78 78 78 78 78 75 76 75 75 76 76 77 79 78 79 79 79 79 80 79 79 78 78 79
70 71 72 73 75 75 75 75 75 76 76 76 76 76 77 76 77 77 77 77 77 76 76 77 77 78 77 77 77 77 78 78 78 78 78 78 78 79 79 79 79 79 77 75 74 74 75 76 75 75 76 77 78 78 79 79 79 80 79 79 78 78 79
67 67 68 71 73 74 74 74 73 74 74 75 75 75 75 76 76 77 78 77 77 77 77 77 77 77 77 77 77 78 78 78 78 79 79 79 79 79 80 80 78 76 75 75 74 74 75 75 75 75 75 76 77 78 78 79 79 80 79 79 79 79 78
66 67 67 68 69 70 70 71 71 72 73 73 74 74 75 75 75 76 76 76 76 76 77 77 77 77 77 77 77 77 78 78 79 78 78 79 80 80 80 80 78 75 76 76 75 75 74 74 74 74 75 76 77 77 78 79 79 79 80 80 80 80 80
66 67 67 67 68 69 69 70 71 71 71 72 73 73 73 73 74 75 75 75 76 76 77 77 77 77 76 77 77 76 77 78 78 79 79 79 80 80 81 80 78 76 76 76 76 76 74 74 74 74 74 76 77 78 78 79 79 79 80 81 81 80 80
66 67 67 67 67 69 69 69 70 70 70 71 72 72 73 73 73 73 74 74 74 74 74 75 76 76 76 76 76 76 77 78 78 79 80 80 80 81 81 80 78 77 76 76 77 76 75 75 74 74 75 76 77 78 78 79 79 78 79 79 80 80 80
67 66 67 67 67 67 68 69 69 69 69 70 70 71 72 72 72 72 73 73 72 72 73 73 74 75 75 76 76 76 76 77 78 79 79 79 79 80 81 80 79 78 78 77 76 77 77 75 75 75 76 76 77 78 79 78 78 78 79 79 80 80 80
65 65 66 66 66 67 67 68 68 68 69 69 70 70 71 71 71 71 72 72 72 72 72 72 72 73 75 75 75 76 76 77 77 78 78 79 78 78 79 79 79 78 77 77 77 78 78 78 77 76 75 76 77 78 79 78 78 78 79 78 79 79 80
64 64 65 65 66 67 67 67 67 68 69 69 69 70 70 70 71 71 71 71 71 71 71 71 71 72 73 74 75 76 76 76 77 77 77 77 77 77 78 79 79 79 78 77 77 78 78 78 78 78 77 77 77 77 78 78 79 79 80 79 79 78 79
65 64 65 66 66 67 68 68 68 68 68 68 69 69 69 70 71 71 71 71 71 71 71 72 71 71 72 73 74 74 75 75 75 76 76 76 77 77 77 77 78 77 77 77 77 77 77 78 77 78 79 78 78 77 79 79 79 75 66 68 71 78 78
64 64 65 65 66 66 67 67 68 68 68 68 69 69 69 69 70 70 70 71 71 71 71 71 71 71 71 72 72 72 73 73 74 74 75 75 75 76 76 76 76 76 76 77 77 76 78 77 77 77 78 79 78 78 78 77 70 64 66 68 69 74 78
64 65 65 65 65 66 67 67 68 68 68 68 69 69 69 70 70 70 71 71 71 71 71 71 71 71 71 71 71 71 72 72 73 74 74 74 74 74 75 75 75 76 76 75 76 77 76 76 77 77 77 78 77 77 76 73 64 63 64 65 65 66 73
64 64 65 66 66 66 66 66 67 68 69 69 69 69 70 71 70 70 70 71 70 71 71 71 71 71 71 71 70 70 70 69 71 72 72 73 73 73 73 74 74 75 74 75 75 75 75 76 76 76 75 76 76 73 71 70 63 61 62 62 63 65 69
64 64 64 64 64 65 65 66 67 67 69 68 69 69 69 69 70 69 69 69 69 70 70 70 70 70 70 70 70 70 70 69 69 69 70 71 72 72 72 73 72 73 73 73 73 73 73 73 73 73 73 72 72 71 70 68 59 59 61 60 62 63 70
63 64 63 63 63 63 64 65 66 67 68 69 69 69 69 69 69 69 69 69 69 69 69 69 69 69 69 69 69 69 70 70 69 69 70 70 71 70 69 69 69 70 72 72 71 71 70 70 70 69 68 69 70 70 68 67 58 58 58 60 60 65 74
65 64 64 64 64 64 64 65 65 66 68 69 69 69 69 69 69 69 69 68 68 69 68 68 68 68 69 69 69 69 69 69 69 69 69 70 70 70 70 69 69 69 70 71 71 69 68 68 68 67 68 68 68 67 66 67 60 56 56 58 59 69 74
66 66 66 65 65 64 65 65 66 67 68 68 68 69 69 69 69 69 68 68 68 68 68 68 67 68 68 68 69 69 69 69 69 69 70 70 70 70 70 69 70 69 71 70 69 68 67 66 67 67 67 67 66 68 67 66 61 55 55 57 60 71 74
65 66 66 66 66 65 65 66 66 67 67 67 68 68 69 69 69 68 68 68 68 68 68 67 68 68 68 68 69 69 69 69 69 69 70 70 70 71 70 70 69 70 71 70 69 68 67 67 66 66 66 67 67 68 64 64 63 56 55 56 61 70 73
65 66 66 67 67 67 67 67 67 66 66 66 66 68 68 69 68 68 68 68 68 68 67 68 68 69 69 69 69 69 69 69 70 69 69 70 70 70 70 71 70 69 69 69 68 68 67 66 65 63 64 64 64 64 64 63 63 60 54 56 58 64 72
66 66 66 67 66 68 67 67 66 66 66 66 67 67 68 68 68 67 68 68 67 67 67 68 68 69 69 69 69 69 69 69 70 69 70 70 69 70 70 70 70 69 69 68 68 66 65 64 64 64 64 64 64 64 65 65 63 60 55 55 57 60 67
66 67 67 67 68 67 66 67 66 66 66 67 67 67 67 67 66 65 65 64 64 65 66 67 67 68 69 69 69 68 69 69 69 69 69 69 69 68 68 69 69 69 68 67 66 65 64 64 64 63 62 63 64 64 64 67 65 62 59 55 55 56 61
64 64 64 64 64 66 66 64 65 65 65 66 67 67 67 66 64 64 64 63 63 65 66 67 67 67 68 68 68 68 68 68 68 68 68 68 68 68 67 67 66 66 66 65 64 63 63 62 62 62 61 61 61 62 63 63 65 64 62 57 54 54 56
63 63 64 65 65 65 65 63 64 64 65 65 66 66 66 66 64 64 63 62 64 65 67 66 66 67 67 67 66 66 66 67 67 67 68 67 67 67 66 66 65 65 65 64 63 62 61 61 61 61 61 61 61 61 62 63 63 64 64 61 55 53 53
59 60 60 60 62 64 63 62 62 63 64 64 64 65 66 66 65 65 63 64 66 66 66 66 66 66 66 65 65 65 65 66 65 66 67 67 67 67 66 65 65 64 64 64 62 61 61 61 62 62 62 61 61 61 61 61 62 63 65 64 62 56 55
59 59 60 60 61 62 62 62 63 62 62 62 63 64 64 64 65 64 64 66 67 66 66 66 66 66 65 66 66 65 66 65 65 65 66 66 67 67 67 67 66 65 64 65 64 64 63 63 64 64 63 62 60 59 58 59 59 60 62 65 65 63 59
57 57 58 58 59 60 60 61 60 61 61 60 61 63 64 64 64 64 65 65 66 67 66 67 66 66 65 64 65 65 66 64 64 62 62 63 64 65 66 67 67 67 66 65 65 65 65 65 65 64 63 62 61 61 61 60 60 59 59 59 60 60 61
57 57 57 56 58 58 58 57 58 59 59 59 59 61 63 63 63 63 64 65 66 66 66 66 65 64 64 65 65 66 66 66 66 62 59 58 58 59 60 61 62 63 62 63 64 65 65 65 65 64 64 62 62 61 61 60 60 59 58 58 58 60 60
57 56 56 56 57 57 56 57 57 57 59 58 57 60 61 61 61 62 62 63 64 66 65 65 66 64 63 64 64 64 64 62 62 61 59 56 54 52 52 53 56 58 58 56 55 58 64 67 64 65 64 63 61 61 62 62 61 57 51 51 48 51 57
56 56 56 56 57 56 58 57 57 58 58 56 56 59 60 60 60 61 63 63 63 64 65 65 64 63 62 62 62 62 61 61 61 60 60 59 57 55 54 52 48 51 56 55 54 50 45 51 63 65 63 59 56 56 60 62 58 48 42 41 41 41 42
56 56 56 57 57 56 57 57 59 58 58 57 58 58 59 59 59 60 61 61 62 63 62 63 63 63 62 63 62 63 62 61 60 59 58 58 58 58 58 56 52 43 45 50 51 45 42 42 44 50 55 61 57 51 48 48 44 41 40 40 40 40 39
56 56 57 58 57 57 58 58 58 58 57 56 57 57 58 59 59 58 60 60 60 61 62 62 62 61 61 62 63 64 62 60 61 60 59 58 59 59 58 58 58 56 45 43 45 45 42 41 41 42 45 49 53 55 51 45 42 40 40 40 40 40 39